KC5DAQ-29 Weather Reports


time (UTC)temp
C
wind
direction
speed
KPH
gust
KPH
rain 1hr
cm
rain 24hr
cm
rain mn
cm
humidity
%
barometer
mb
20260510045603 23 154 3.2 6.4 0.00 0.00 0.00 100 1008.7
20260510045503 23 102 1.6 6.4 0.00 0.00 0.00 100 1008.7
20260510045403 23 102 3.2 6.4 0.00 0.00 0.00 100 1008.7
20260510045306 23 82 3.2 6.4 0.00 0.00 0.00 100 1008.8
20260510045204 23 152 3.2 6.4 0.00 0.00 0.00 100 1008.7
20260510045103 23 130 3.2 6.4 0.00 0.00 0.00 100 1008.7
20260510045003 23 144 3.2 6.4 0.00 0.00 0.00 100 1008.7
20260510044903 23 145 1.6 6.4 0.00 0.00 0.00 100 1008.7
20260510044801 23 152 1.6 6.4 0.00 0.00 0.00 100 1008.7
20260510044704 23 154 3.2 6.4 0.00 0.00 0.00 100 1008.7
20260510044602 23 121 3.2 6.4 0.00 0.00 0.00 100 1008.7
20260510044502 23 138 1.6 4.8 0.00 0.00 0.00 100 1008.7
20260510044403 23 118 1.6 4.8 0.00 0.00 0.00 100 1008.8
20260510044303 23 118 3.2 4.8 0.00 0.00 0.00 100 1008.8
20260510044204 23 118 3.2 4.8 0.00 0.00 0.00 100 1008.8
20260510044101 23 148 1.6 4.8 0.00 0.00 0.00 100 1008.9
20260510044003 23 195 1.6 4.8 0.00 0.00 0.00 100 1008.8
20260510043903 23 151 1.6 4.8 0.00 0.00 0.00 100 1008.9
20260510043802 23 152 1.6 4.8 0.00 0.00 0.00 100 1009.0
20260510043702 23 123 1.6 4.8 0.00 0.00 0.00 100 1009.0
20260510043603 23 124 1.6 4.8 0.00 0.00 0.00 100 1009.0
20260510043502 23 104 1.6 4.8 0.00 0.00 0.00 100 1009.0
20260510043401 23 104 1.6 4.8 0.00 0.00 0.00 100 1009.0
20260510043302 23 104 1.6 4.8 0.00 0.00 0.00 100 1009.0
20260510043202 23 104 1.6 4.8 0.00 0.00 0.00 100 1009.1
20260510043103 23 145 1.6 4.8 0.00 0.00 0.00 100 1009.0
20260510043004 23 147 1.6 4.8 0.00 0.00 0.00 100 1009.1
20260510042902 23 138 1.6 4.8 0.00 0.00 0.00 100 1009.1
20260510042802 23 140 1.6 4.8 0.00 0.00 0.00 100 1009.2
20260510042703 23 141 1.6 4.8 0.00 0.00 0.00 100 1009.1
20260510042603 23 123 1.6 3.2 0.00 0.00 0.00 100 1009.2
20260510042503 23 120 0.0 3.2 0.00 0.00 0.00 100 1009.1
20260510042403 23 86 0.0 3.2 0.00 0.00 0.00 100 1009.2
20260510042306 23 86 1.6 3.2 0.00 0.00 0.00 100 1009.2
20260510042203 23 117 1.6 3.2 0.00 0.00 0.00 100 1009.1
20260510042104 23 52 1.6 3.2 0.00 0.00 0.00 100 1009.1
20260510042002 23 135 0.0 1.6 0.00 0.00 0.00 100 1009.2
20260510041903 23 135 0.0 1.6 0.00 0.00 0.00 100 1009.2
20260510041804 23 147 0.0 1.6 0.00 0.00 0.00 100 1009.2
20260510041702 23 133 0.0 1.6 0.00 0.00 0.00 100 1009.3
20260510041603 23 133 0.0 1.6 0.00 0.00 0.00 100 1009.3
20260510041502 23 133 0.0 1.6 0.00 0.00 0.00 100 1009.3
20260510041403 23 135 0.0 1.6 0.00 0.00 0.00 100 1009.3
20260510041303 23 135 0.0 1.6 0.00 0.00 0.00 100 1009.4
20260510041204 23 135 0.0 1.6 0.00 0.00 0.00 100 1009.4
20260510041104 23 135 0.0 0.0 0.00 0.00 0.00 100 1009.4
20260510041001 22 137 0.0 0.0 0.00 0.00 0.00 100 1009.4
20260510040903 22 138 0.0 0.0 0.00 0.00 0.00 100 1009.4
20260510040803 22 138 0.0 0.0 0.00 0.00 0.00 100 1009.4
20260510040703 22 138 0.0 0.0 0.00 0.00 0.00 100 1009.4
20260510040604 22 138 0.0 0.0 0.00 0.00 0.00 100 1009.4
20260510040504 22 138 0.0 0.0 0.00 0.00 0.00 100 1009.4
20260510040403 22 138 0.0 0.0 0.00 0.00 0.00 100 1009.4
20260510040303 22 138 0.0 0.0 0.00 0.00 0.00 100 1009.5
20260510040203 22 138 0.0 0.0 0.00 0.00 0.00 100 1009.5
20260510040003 22 138 0.0 1.6 0.00 0.00 0.00 100 1009.3
20260510035903 22 138 0.0 1.6 0.00 0.00 0.00 100 1009.3
20260510035802 22 138 0.0 1.6 0.00 0.00 0.00 100 1009.4
20260510035703 22 138 0.0 1.6 0.00 0.00 0.00 100 1009.3
20260510035602 22 138 0.0 1.6 0.00 0.00 0.00 100 1009.3
20260510035502 22 138 0.0 1.6 0.00 0.00 0.00 100 1009.3
20260510035403 22 138 0.0 1.6 0.00 0.00 0.00 100 1009.3
20260510035306 22 138 0.0 1.6 0.00 0.00 0.00 100 1009.3
20260510035203 22 138 0.0 1.6 0.00 0.00 0.00 100 1009.4
20260510035103 22 130 0.0 1.6 0.00 0.00 0.00 100 1009.3
20260510035001 22 128 0.0 1.6 0.00 0.00 0.00 100 1009.4
20260510034903 22 151 0.0 0.0 0.00 0.00 0.00 100 1009.4
20260510034802 22 151 0.0 0.0 0.00 0.00 0.00 100 1009.4
20260510034703 22 151 0.0 0.0 0.00 0.00 0.00 100 1009.5
20260510034602 22 152 0.0 1.6 0.00 0.00 0.00 100 1009.5
20260510034503 22 154 0.0 1.6 0.00 0.00 0.00 100 1009.5
20260510034402 22 154 0.0 1.6 0.00 0.00 0.00 100 1009.5
20260510034304 22 154 0.0 1.6 0.00 0.00 0.00 100 1009.5
20260510034203 22 154 0.0 1.6 0.00 0.00 0.00 100 1009.5
20260510034103 22 154 0.0 1.6 0.00 0.00 0.00 100 1009.5
20260510034003 22 154 0.0 1.6 0.00 0.00 0.00 100 1009.6
20260510033903 22 154 0.0 1.6 0.00 0.00 0.00 100 1009.6
20260510033803 22 154 0.0 1.6 0.00 0.00 0.00 100 1009.6
20260510033702 22 154 0.0 1.6 0.00 0.00 0.00 100 1009.6
20260510033603 22 155 0.0 1.6 0.00 0.00 0.00 100 1009.5
20260510033505 22 155 0.0 1.6 0.00 0.00 0.00 100 1009.5
20260510033404 22 155 0.0 1.6 0.00 0.00 0.00 100 1009.5
20260510033302 22 155 0.0 1.6 0.00 0.00 0.00 100 1009.5
20260510033204 22 155 0.0 1.6 0.00 0.00 0.00 100 1009.5
20260510033103 22 155 0.0 1.6 0.00 0.00 0.00 100 1009.5
20260510033004 22 155 0.0 1.6 0.00 0.00 0.00 100 1009.4
20260510032902 22 155 0.0 1.6 0.00 0.00 0.00 100 1009.5
20260510032802 22 155 0.0 1.6 0.00 0.00 0.00 100 1009.4
20260510032702 22 155 0.0 3.2 0.00 0.00 0.00 100 1009.4
20260510032603 22 155 0.0 3.2 0.00 0.00 0.00 100 1009.4
20260510032502 22 155 0.0 3.2 0.00 0.00 0.00 100 1009.4
20260510032402 23 155 0.0 3.2 0.00 0.00 0.00 100 1009.3
20260510032306 23 155 0.0 3.2 0.00 0.00 0.00 100 1009.3
20260510032202 23 155 0.0 3.2 0.00 0.00 0.00 100 1009.2
20260510032103 23 155 0.0 3.2 0.00 0.00 0.00 100 1009.2
20260510032002 22 155 0.0 3.2 0.00 0.00 0.00 100 1009.2
20260510031903 23 155 1.6 3.2 0.00 0.00 0.00 100 1009.2
20260510031758 23 154 1.6 3.2 0.00 0.00 0.00 100 1009.2
20260510031647 23 114 0.0 1.6 0.00 0.00 0.00 100 1009.2
20260510031536 23 114 0.0 1.6 0.00 0.00 0.00 100 1009.2
20260510031435 23 114 0.0 1.6 0.00 0.00 0.00 100 1009.2
20260510031333 23 114 0.0 1.6 0.00 0.00 0.00 100 1009.1
20260510031231 23 114 0.0 1.6 0.00 0.00 0.00 100 1009.0
20260510031131 23 114 0.0 1.6 0.00 0.00 0.00 100 1009.0
20260510031032 23 114 0.0 1.6 0.00 0.00 0.00 100 1008.9
20260510030931 23 114 0.0 1.6 0.00 0.00 0.00 100 1009.0
20260510030833 23 114 0.0 1.6 0.00 0.00 0.00 100 1009.0
20260510030731 23 117 0.0 1.6 0.00 0.00 0.00 100 1009.0
20260510030632 23 121 0.0 1.6 0.00 0.00 0.00 100 1008.9
20260510030531 23 121 0.0 1.6 0.00 0.00 0.00 100 1008.9
20260510030432 22 123 0.0 1.6 0.00 0.00 0.00 100 1009.0
20260510030327 22 127 0.0 1.6 0.00 0.00 0.00 100 1009.0
20260510030219 22 127 0.0 1.6 0.00 0.00 0.00 100 1009.0
20260510030114 22 128 0.0 1.6 0.00 0.00 0.00 100 1009.1
20260510030010 23 130 0.0 1.6 0.00 0.00 0.00 100 1009.2
20260510025909 23 130 0.0 1.6 0.00 0.00 0.00 100 1009.2
20260510025811 23 131 0.0 1.6 0.00 0.00 0.00 100 1009.2
20260510025709 23 76 0.0 0.0 0.00 0.00 0.00 100 1009.2
20260510025609 23 76 0.0 0.0 0.00 0.00 0.00 100 1009.1
20260510025506 23 124 0.0 3.2 0.00 0.00 0.00 100 1009.1
20260510025408 23 124 0.0 3.2 0.00 0.00 0.00 100 1009.2
20260510025306 23 124 0.0 3.2 0.00 0.00 0.00 100 1009.2
20260510025206 23 124 0.0 4.8 0.00 0.00 0.00 100 1009.1
20260510025107 23 124 0.0 4.8 0.00 0.00 0.00 100 1009.1
20260510025006 23 124 0.0 4.8 0.00 0.00 0.00 100 1009.0
20260510024906 23 124 0.0 4.8 0.00 0.00 0.00 100 1009.0
20260510024808 23 125 0.0 4.8 0.00 0.00 0.00 100 1009.0
20260510024706 23 128 1.6 4.8 0.00 0.00 0.00 100 1008.9
20260510024606 23 130 1.6 4.8 0.00 0.00 0.00 100 1008.9
20260510024506 23 134 1.6 6.4 0.00 0.00 0.00 100 1008.9
20260510024407 23 97 3.2 6.4 0.00 0.00 0.00 100 1008.9
20260510024307 23 97 1.6 6.4 0.00 0.00 0.00 100 1008.8
20260510024206 23 103 0.0 6.4 0.00 0.00 0.00 100 1008.8
20260510024106 23 106 1.6 6.4 0.00 0.00 0.00 100 1008.7
20260510024006 23 99 1.6 6.4 0.00 0.00 0.00 100 1008.8
20260510023907 23 100 3.2 6.4 0.00 0.00 0.00 100 1008.8
20260510023807 23 100 3.2 8.0 0.00 0.00 0.00 100 1008.7
20260510023706 23 113 3.2 8.0 0.00 0.00 0.00 100 1008.7
20260510023607 23 104 3.2 8.0 0.00 0.00 0.00 100 1008.7
20260510023506 23 124 3.2 8.0 0.00 0.00 0.00 100 1008.8
20260510023406 23 161 3.2 8.0 0.00 0.00 0.00 100 1008.7
20260510023306 23 111 3.2 8.0 0.00 0.00 0.00 100 1008.7
20260510023206 23 106 3.2 11.3 0.00 0.00 0.00 100 1008.7
20260510023106 23 104 1.6 11.3 0.00 0.00 0.00 100 1008.8
20260510023007 23 102 3.2 11.3 0.00 0.00 0.00 100 1008.7
20260510022907 23 120 3.2 14.5 0.00 0.00 0.00 100 1008.7
20260510022807 23 85 3.2 14.5 0.00 0.00 0.00 100 1008.8
20260510022705 23 165 3.2 14.5 0.00 0.00 0.00 100 1008.8
20260510022605 23 109 3.2 14.5 0.00 0.00 0.00 100 1008.7
20260510022505 23 117 4.8 14.5 0.00 0.00 0.00 100 1008.7
20260510022406 23 109 6.4 14.5 0.00 0.00 0.00 100 1008.7
20260510022307 23 61 6.4 14.5 0.00 0.00 0.00 100 1008.7
20260510022206 23 86 6.4 14.5 0.00 0.00 0.00 100 1008.8
20260510022106 23 125 6.4 14.5 0.00 0.00 0.00 100 1008.9
20260510022005 23 106 6.4 14.5 0.00 0.00 0.00 100 1008.9
20260510021906 23 92 6.4 11.3 0.00 0.00 0.00 100 1008.9
20260510021806 23 58 6.4 11.3 0.00 0.00 0.00 100 1008.9
20260510021706 23 76 3.2 9.7 0.00 0.00 0.00 100 1008.9
20260510021607 23 107 4.8 9.7 0.00 0.00 0.00 100 1008.9
20260510021506 23 111 4.8 9.7 0.00 0.00 0.00 100 1009.0
20260510021406 23 93 3.2 9.7 0.00 0.00 0.00 100 1009.0
20260510021306 23 94 4.8 9.7 0.00 0.00 0.00 100 1009.0
20260510021207 24 97 4.8 9.7 0.00 0.00 0.00 100 1009.0
20260510021106 24 85 6.4 9.7 0.00 0.00 0.00 100 1009.1
20260510021005 24 83 4.8 9.7 0.00 0.00 0.00 100 1009.1
20260510020905 24 102 6.4 9.7 0.00 0.00 0.00 100 1009.1
20260510020805 24 75 4.8 9.7 0.00 0.00 0.00 100 1009.2
20260510020705 24 102 4.8 8.0 0.00 0.00 0.00 100 1009.2
20260510020607 24 133 4.8 8.0 0.00 0.00 0.00 100 1009.2
20260510020506 24 87 4.8 8.0 0.00 0.00 0.00 100 1009.2
20260510020406 25 87 4.8 8.0 0.00 0.00 0.00 100 1009.2
20260510020305 25 82 3.2 9.7 0.00 0.00 0.00 100 1009.3
20260510020205 25 83 3.2 9.7 0.00 0.00 0.00 100 1009.2
20260510020105 25 102 3.2 9.7 0.00 0.00 0.00 100 1009.2
20260510020005 25 107 4.8 9.7 0.00 0.00 0.00 100 1009.2
20260510015907 25 89 4.8 9.7 0.00 0.00 0.00 100 1009.2
20260510015805 25 83 4.8 9.7 0.00 0.00 0.00 100 1009.2
20260510015705 25 83 6.4 9.7 0.00 0.00 0.00 100 1009.1
20260510015605 25 73 6.4 9.7 0.00 0.00 0.00 100 1009.2
20260510015505 25 99 6.4 9.7 0.00 0.00 0.00 100 1009.2
20260510015405 25 38 6.4 9.7 0.00 0.00 0.00 100 1009.2
20260510015306 25 58 4.8 8.0 0.00 0.00 0.00 100 1009.1
20260510015205 25 68 3.2 8.0 0.00 0.00 0.00 100 1009.1
20260510015106 25 121 3.2 8.0 0.00 0.00 0.00 100 1009.0
20260510015005 25 73 4.8 8.0 0.00 0.00 0.00 100 1009.0
20260510014905 25 120 4.8 8.0 0.00 0.00 0.00 100 1008.9
20260510014806 25 78 4.8 8.0 0.00 0.00 0.00 100 1008.9
20260510014706 25 51 3.2 6.4 0.00 0.00 0.00 100 1008.9
20260510014605 25 72 3.2 6.4 0.00 0.00 0.00 100 1008.8
20260510014505 25 113 3.2 6.4 0.00 0.00 0.00 100 1008.7
20260510014406 25 113 4.8 9.7 0.00 0.00 0.00 100 1008.5
20260510014304 25 72 4.8 9.7 0.00 0.00 0.00 100 1008.5
20260510014206 25 99 3.2 9.7 0.00 0.00 0.00 100 1008.3
20260510014106 25 85 3.2 9.7 0.00 0.00 0.00 100 1008.3
20260510014005 25 85 3.2 9.7 0.00 0.00 0.00 100 1008.2
20260510013904 25 85 3.2 9.7 0.00 0.00 0.00 100 1008.1
20260510013804 25 87 3.2 11.3 0.00 0.00 0.00 100 1008.0
20260510013705 25 83 6.4 11.3 0.00 0.00 0.00 100 1008.0
20260510013605 25 83 6.4 11.3 0.00 0.00 0.00 100 1007.9
20260510013506 25 97 6.4 11.3 0.00 0.00 0.00 100 1007.9
20260510013405 25 106 6.4 20.9 0.00 0.00 0.00 100 1007.8
20260510013305 25 102 6.4 20.9 0.00 0.00 0.00 100 1007.8
20260510013205 25 85 6.4 20.9 0.00 0.00 0.00 100 1007.7
20260510013104 26 71 4.8 20.9 0.00 0.00 0.00 100 1007.7
20260510013005 26 118 6.4 20.9 0.00 0.00 0.00 100 1007.6
20260510012904 26 76 6.4 20.9 0.00 0.00 0.00 100 1007.5
20260510012807 26 87 6.4 20.9 0.00 0.00 0.00 100 1007.3
20260510012704 26 96 6.4 20.9 0.00 0.00 0.00 100 1007.2
20260510012605 26 83 8.0 20.9 0.00 0.00 0.00 100 1007.1
20260510012504 26 97 8.0 20.9 0.00 0.00 0.00 100 1007.2
20260510012404 27 103 9.7 14.5 0.00 0.00 0.00 100 1007.0
20260510012307 27 87 8.0 14.5 0.00 0.00 0.00 100 1007.1
20260510012204 27 152 6.4 11.3 0.00 0.00 0.00 100 1007.0
20260510012104 27 35 6.4 11.3 0.00 0.00 0.00 100 1007.0
20260510012004 27 94 6.4 17.7 0.00 0.00 0.00 100 1006.9
20260510011906 27 116 6.4 17.7 0.00 0.00 0.00 100 1006.9
20260510011805 27 68 6.4 17.7 0.00 0.00 0.00 100 1006.9
20260510011704 27 96 6.4 17.7 0.00 0.00 0.00 100 1006.8
20260510011604 28 76 4.8 17.7 0.00 0.00 0.00 100 1006.8
20260510011504 28 99 6.4 17.7 0.00 0.00 0.00 100 1006.7
20260510011405 28 92 6.4 17.7 0.00 0.00 0.00 100 1006.8
20260510011304 28 100 6.4 17.7 0.00 0.00 0.00 100 1006.8
20260510011204 28 107 6.4 17.7 0.00 0.00 0.00 100 1006.8
20260510011104 28 121 9.7 17.7 0.00 0.00 0.00 100 1006.7
20260510011004 28 94 8.0 17.7 0.00 0.00 0.00 100 1006.7
20260510010906 28 120 6.4 17.7 0.00 0.00 0.00 100 1006.6
20260510010806 28 124 4.8 11.3 0.00 0.00 0.00 100 1006.7
20260510010704 28 99 6.4 11.3 0.00 0.00 0.00 100 1006.6
20260510010603 28 100 4.8 11.3 0.00 0.00 0.00 100 1006.6
20260510010504 28 106 1.6 9.7 0.00 0.00 0.00 100 1006.4
20260510010404 28 104 0.0 0.0 0.00 0.00 0.00 100 1006.4
20260510010303 28 107 0.0 0.0 0.00 0.00 0.00 100 1006.3
20260510010203 28 104 0.0 0.0 0.00 0.00 0.00 100 1006.1
20260510010104 28 127 0.0 0.0 0.00 0.00 0.00 100 1006.0
20260510010004 28 127 0.0 0.0 0.00 0.00 0.00 100 1006.0
20260510005904 28 149 0.0 0.0 0.00 0.00 0.00 100 1006.0
20260510005804 28 149 0.0 0.0 0.00 0.00 0.00 100 1006.0
20260510005704 28 149 0.0 0.0 0.00 0.00 0.00 100 1006.1
20260510005605 28 159 0.0 0.0 0.00 0.00 0.00 100 1006.1
20260510005504 28 162 0.0 0.0 0.00 0.00 0.00 100 1006.2
20260510005403 29 165 0.0 0.0 0.00 0.00 0.00 100 1006.1
20260510005306 29 165 0.0 0.0 0.00 0.00 0.00 100 1006.1
20260510005205 29 165 0.0 0.0 0.00 0.00 0.00 100 1006.2
20260510005103 29 165 0.0 0.0 0.00 0.00 0.00 100 1006.0
20260510005004 29 165 0.0 0.0 0.00 0.00 0.00 100 1006.0
20260510004904 29 165 0.0 0.0 0.00 0.00 0.00 100 1006.0
20260510004803 29 165 0.0 0.0 0.00 0.00 0.00 100 1005.9
20260510004704 29 165 0.0 0.0 0.00 0.00 0.00 100 1005.9
20260510004603 29 165 0.0 0.0 0.00 0.00 0.00 100 1005.9
20260510004503 29 165 0.0 0.0 0.00 0.00 0.00 100 1005.8
20260510004403 29 165 0.0 0.0 0.00 0.00 0.00 100 1005.9
20260510004304 29 165 0.0 0.0 0.00 0.00 0.00 100 1006.0
20260510004203 29 166 0.0 0.0 0.00 0.00 0.00 100 1005.9
20260510004103 29 166 0.0 0.0 0.00 0.00 0.00 100 1005.9
20260510004004 29 166 0.0 0.0 0.00 0.00 0.00 100 1005.9
20260510003904 29 166 0.0 0.0 0.00 0.00 0.00 100 1005.8
20260510003804 29 166 0.0 0.0 0.00 0.00 0.00 100 1005.8
20260510003704 29 166 0.0 0.0 0.00 0.00 0.00 100 1005.8
20260510003603 30 166 0.0 0.0 0.00 0.00 0.00 100 1005.8
20260510003503 30 166 0.0 0.0 0.00 0.00 0.00 100 1005.8
20260510003403 30 166 0.0 0.0 0.00 0.00 0.00 100 1005.8
20260510003303 30 166 0.0 0.0 0.00 0.00 0.00 100 1005.7
20260510003203 30 166 0.0 0.0 0.00 0.00 0.00 100 1005.7
20260510003103 30 166 0.0 0.0 0.00 0.00 0.00 100 1005.7
20260510003004 30 166 0.0 0.0 0.00 0.00 0.00 100 1005.6
20260510002903 30 166 0.0 0.0 0.00 0.00 0.00 100 1005.6
20260510002804 30 166 0.0 0.0 0.00 0.00 0.00 100 1005.5
20260510002703 30 166 0.0 0.0 0.00 0.00 0.00 100 1005.5
20260510002604 30 158 0.0 0.0 0.00 0.00 0.00 100 1005.5
20260510002503 30 165 0.0 0.0 0.00 0.00 0.00 100 1005.4
20260510002404 30 159 0.0 0.0 0.00 0.00 0.00 100 1005.4
20260510002306 30 159 0.0 0.0 0.00 0.00 0.00 100 1005.4
20260510002203 30 161 0.0 0.0 0.00 0.00 0.00 100 1005.4
20260510002104 30 161 0.0 0.0 0.00 0.00 0.00 100 1005.5
20260510002003 30 147 0.0 0.0 0.00 0.00 0.00 100 1005.6
20260510001903 30 147 0.0 0.0 0.00 0.00 0.00 100 1005.5
20260510001803 30 141 0.0 0.0 0.00 0.00 0.00 100 1005.5
20260510001704 30 141 0.0 0.0 0.00 0.00 0.00 100 1005.5
20260510001604 30 154 0.0 0.0 0.00 0.00 0.00 100 1005.4
20260510001505 30 154 0.0 6.4 0.00 0.00 0.00 100 1005.4
20260510001402 30 155 0.0 6.4 0.00 0.00 0.00 100 1005.4
20260510001303 30 155 0.0 6.4 0.00 0.00 0.00 100 1005.5
20260510001204 30 138 0.0 6.4 0.00 0.00 0.00 100 1005.4
20260510001102 30 138 0.0 6.4 0.00 0.00 0.00 100 1005.5
20260510001002 30 148 0.0 6.4 0.00 0.00 0.00 100 1005.5
20260510000903 30 149 0.0 6.4 0.00 0.00 0.00 100 1005.5
20260510000757 30 149 0.0 6.4 0.00 0.00 0.00 100 1005.5
20260510000641 30 164 0.0 6.4 0.00 0.00 0.00 100 1005.5
20260510000539 30 162 0.0 0.0 0.00 0.00 0.00 100 1005.5
20260510000436 30 135 0.0 0.0 0.00 0.00 0.00 100 1005.4
20260510000334 30 165 0.0 0.0 0.00 0.00 0.00 100 1005.3
20260510000233 31 165 0.0 0.0 0.00 0.00 0.00 100 1005.4
20260510000132 31 165 0.0 0.0 0.00 0.00 0.00 100 1005.3
20260510000032 31 165 0.0 0.0 0.00 0.00 0.00 100 1005.3
20260509235931 31 165 0.0 0.0 0.00 0.00 0.00 100 1005.3
20260509235832 31 165 0.0 0.0 0.00 0.00 0.00 100 1005.4
20260509235732 31 165 0.0 0.0 0.00 0.00 0.00 100 1005.4
20260509235632 31 165 0.0 0.0 0.00 0.00 0.00 100 1005.4
20260509235532 31 165 0.0 0.0 0.00 0.00 0.00 100 1005.3
20260509235430 31 165 0.0 0.0 0.00 0.00 0.00 100 1005.3
20260509235332 31 165 0.0 0.0 0.00 0.00 0.00 100 1005.3
20260509235231 31 165 0.0 0.0 0.00 0.00 0.00 100 1005.3
20260509235132 31 165 0.0 0.0 0.00 0.00 0.00 100 1005.3
20260509235032 31 165 0.0 0.0 0.00 0.00 0.00 100 1005.2
20260509234932 31 165 0.0 0.0 0.00 0.00 0.00 100 1005.2
20260509234831 31 165 0.0 0.0 0.00 0.00 0.00 100 1005.2
20260509234731 31 165 0.0 0.0 0.00 0.00 0.00 100 1005.1
20260509234628 31 165 0.0 0.0 0.00 0.00 0.00 100 1005.1
20260509234526 31 165 0.0 0.0 0.00 0.00 0.00 100 1005.2
20260509234426 31 165 0.0 0.0 0.00 0.00 0.00 100 1005.2
20260509234325 31 165 0.0 0.0 0.00 0.00 0.00 100 1005.2
20260509234216 31 165 0.0 0.0 0.00 0.00 0.00 100 1005.2
20260509234103 31 165 0.0 0.0 0.00 0.00 0.00 100 1005.3
20260509234003 31 165 0.0 0.0 0.00 0.00 0.00 100 1005.4
20260509233903 31 165 0.0 0.0 0.00 0.00 0.00 100 1005.3
20260509233803 31 165 0.0 0.0 0.00 0.00 0.00 100 1005.4
20260509233703 31 165 0.0 0.0 0.00 0.00 0.00 100 1005.3
20260509233603 31 165 0.0 0.0 0.00 0.00 0.00 100 1005.4
20260509233503 31 165 0.0 0.0 0.00 0.00 0.00 100 1005.4
20260509233402 31 165 0.0 0.0 0.00 0.00 0.00 100 1005.3
20260509233303 31 165 0.0 0.0 0.00 0.00 0.00 100 1005.3
20260509233203 31 165 0.0 0.0 0.00 0.00 0.00 100 1005.4
20260509233103 31 165 0.0 0.0 0.00 0.00 0.00 100 1005.3
20260509233003 31 165 0.0 0.0 0.00 0.00 0.00 100 1005.3
20260509232903 31 165 0.0 0.0 0.00 0.00 0.00 100 1005.3
20260509232804 31 165 0.0 0.0 0.00 0.00 0.00 100 1005.3
20260509232703 31 165 0.0 0.0 0.00 0.00 0.00 100 1005.3
20260509232603 31 165 0.0 0.0 0.00 0.00 0.00 100 1005.3
20260509232503 31 165 0.0 0.0 0.00 0.00 0.00 100 1005.4
20260509232402 32 165 0.0 0.0 0.00 0.00 0.00 100 1005.4
20260509232306 32 165 0.0 0.0 0.00 0.00 0.00 100 1005.4
20260509232203 32 166 0.0 0.0 0.00 0.00 0.00 100 1005.4
20260509232051 32 166 0.0 0.0 0.00 0.00 0.00 100 1005.3
20260509231951 32 166 0.0 0.0 0.00 0.00 0.00 100 1005.4
20260509231846 32 152 0.0 0.0 0.00 0.00 0.00 100 1005.4
20260509231731 32 152 0.0 0.0 0.00 0.00 0.00 100 1005.4
20260509231632 32 154 0.0 0.0 0.00 0.00 0.00 100 1005.4
20260509231523 32 157 0.0 0.0 0.00 0.00 0.00 100 1005.4
20260509231413 32 158 0.0 0.0 0.00 0.00 0.00 100 1005.4
20260509231312 32 158 0.0 0.0 0.00 0.00 0.00 100 1005.4
20260509231211 32 164 0.0 0.0 0.00 0.00 0.00 100 1005.4
20260509231102 32 164 0.0 0.0 0.00 0.00 0.00 100 1005.4
20260509231003 32 157 0.0 0.0 0.00 0.00 0.00 100 1005.4
20260509230903 32 157 0.0 0.0 0.00 0.00 0.00 100 1005.4
20260509230802 32 157 0.0 0.0 0.00 0.00 0.00 100 1005.3
20260509230703 32 157 0.0 0.0 0.00 0.00 0.00 100 1005.3
20260509230603 32 169 0.0 0.0 0.00 0.00 0.00 100 1005.2
20260509230503 32 169 0.0 0.0 0.00 0.00 0.00 100 1005.2
20260509230402 32 169 0.0 0.0 0.00 0.00 0.00 100 1005.3
20260509230302 32 169 0.0 0.0 0.00 0.00 0.00 100 1005.3
20260509230202 32 169 0.0 0.0 0.00 0.00 0.00 100 1005.2
20260509230001 32 169 0.0 0.0 0.00 0.00 0.00 100 1005.2
20260509225900 32 169 0.0 0.0 0.00 0.00 0.00 100 1005.2
20260509225759 32 169 0.0 0.0 0.00 0.00 0.00 100 1005.2
20260509225659 32 151 0.0 0.0 0.00 0.00 0.00 100 1005.3
20260509225559 32 118 0.0 0.0 0.00 0.00 0.00 100 1005.2
20260509225500 32 116 0.0 0.0 0.00 0.00 0.00 100 1005.3
20260509225400 32 116 0.0 0.0 0.00 0.00 0.00 100 1005.2
20260509225300 32 116 0.0 0.0 0.00 0.00 0.00 100 1005.2
20260509225159 32 116 0.0 0.0 0.00 0.00 0.00 100 1005.2
20260509225100 32 116 0.0 0.0 0.00 0.00 0.00 100 1005.2
20260509225000 32 116 0.0 0.0 0.00 0.00 0.00 100 1005.2
20260509224900 32 116 0.0 0.0 0.00 0.00 0.00 100 1005.2
20260509224800 32 116 0.0 0.0 0.00 0.00 0.00 100 1005.2
20260509224701 32 116 0.0 0.0 0.00 0.00 0.00 100 1005.2
20260509224600 32 116 0.0 0.0 0.00 0.00 0.00 100 1005.2
20260509224501 32 116 0.0 0.0 0.00 0.00 0.00 100 1005.2
20260509224400 32 116 0.0 0.0 0.00 0.00 0.00 100 1005.2
20260509224259 32 73 0.0 0.0 0.00 0.00 0.00 100 1005.3
20260509224158 32 73 0.0 0.0 0.00 0.00 0.00 100 1005.2
20260509224058 32 73 0.0 0.0 0.00 0.00 0.00 100 1005.3
20260509223958 32 73 0.0 0.0 0.00 0.00 0.00 100 1005.3
20260509223859 32 73 0.0 0.0 0.00 0.00 0.00 100 1005.2
20260509223758 32 73 0.0 0.0 0.00 0.00 0.00 100 1005.2
20260509223656 32 73 0.0 0.0 0.00 0.00 0.00 100 1005.2
20260509223556 32 73 0.0 0.0 0.00 0.00 0.00 100 1005.2
20260509223458 32 73 0.0 0.0 0.00 0.00 0.00 100 1005.3
20260509223358 32 73 0.0 0.0 0.00 0.00 0.00 100 1005.3
20260509223258 32 73 0.0 0.0 0.00 0.00 0.00 100 1005.3
20260509223157 32 73 0.0 0.0 0.00 0.00 0.00 100 1005.2
20260509223059 32 73 0.0 0.0 0.00 0.00 0.00 100 1005.2
20260509222957 32 73 0.0 0.0 0.00 0.00 0.00 100 1005.2
20260509222858 32 73 0.0 0.0 0.00 0.00 0.00 100 1005.2
20260509222757 32 73 0.0 0.0 0.00 0.00 0.00 100 1005.2
20260509222659 32 73 0.0 0.0 0.00 0.00 0.00 100 1005.1
20260509222558 32 73 0.0 0.0 0.00 0.00 0.00 100 1005.1
20260509222456 32 73 0.0 0.0 0.00 0.00 0.00 100 1005.2
20260509222357 32 73 0.0 0.0 0.00 0.00 0.00 100 1005.2
20260509222258 32 73 0.0 0.0 0.00 0.00 0.00 100 1005.1
20260509222158 32 73 0.0 0.0 0.00 0.00 0.00 100 1005.0
20260509222057 32 78 0.0 0.0 0.00 0.00 0.00 100 1005.0
20260509221957 32 107 0.0 0.0 0.00 0.00 0.00 100 1005.0
20260509221857 32 107 0.0 0.0 0.00 0.00 0.00 100 1005.1
20260509221757 32 111 0.0 0.0 0.00 0.00 0.00 100 1005.0
20260509221656 32 111 0.0 0.0 0.00 0.00 0.00 100 1005.1
20260509221557 32 111 0.0 0.0 0.00 0.00 0.00 100 1005.1
20260509221457 32 111 0.0 0.0 0.00 0.00 0.00 100 1005.0
20260509221358 32 111 0.0 0.0 0.00 0.00 0.00 100 1005.0
20260509221258 32 111 0.0 0.0 0.00 0.00 0.00 100 1005.1
20260509221157 32 111 0.0 0.0 0.00 0.00 0.00 100 1005.1
20260509221057 32 111 0.0 0.0 0.00 0.00 0.00 100 1005.1
20260509220958 32 125 0.0 0.0 0.00 0.00 0.00 100 1005.2
20260509220857 32 125 0.0 0.0 0.00 0.00 0.00 100 1005.1
20260509220756 32 125 0.0 0.0 0.00 0.00 0.00 100 1005.1
20260509220657 32 125 0.0 0.0 0.00 0.00 0.00 100 1005.1
20260509220557 32 125 0.0 0.0 0.00 0.00 0.00 100 1005.1
20260509220456 32 125 0.0 0.0 0.00 0.00 0.00 100 1005.1
20260509220357 32 125 0.0 0.0 0.00 0.00 0.00 100 1005.1
20260509220257 32 125 0.0 0.0 0.00 0.00 0.00 100 1005.1
20260509220156 32 125 0.0 0.0 0.00 0.00 0.00 100 1005.1
20260509220057 32 125 0.0 0.0 0.00 0.00 0.00 100 1005.1
20260509215957 32 125 0.0 0.0 0.00 0.00 0.00 100 1005.1
20260509215858 32 125 0.0 0.0 0.00 0.00 0.00 100 1005.1
20260509215757 32 125 0.0 0.0 0.00 0.00 0.00 100 1005.1
20260509215658 32 125 0.0 0.0 0.00 0.00 0.00 100 1005.0
20260509215557 32 125 0.0 0.0 0.00 0.00 0.00 100 1005.0
20260509215456 32 125 0.0 0.0 0.00 0.00 0.00 100 1004.9
20260509215357 32 125 0.0 0.0 0.00 0.00 0.00 100 1005.0
20260509215258 32 125 0.0 0.0 0.00 0.00 0.00 100 1005.0
20260509215156 32 125 0.0 0.0 0.00 0.00 0.00 100 1005.0
20260509215057 32 125 0.0 0.0 0.00 0.00 0.00 100 1005.0
20260509214956 32 125 0.0 0.0 0.00 0.00 0.00 100 1005.0
20260509214857 32 125 0.0 0.0 0.00 0.00 0.00 100 1005.0
20260509214757 32 125 0.0 0.0 0.00 0.00 0.00 100 1005.0
20260509214656 32 125 0.0 0.0 0.00 0.00 0.00 100 1005.0
20260509214557 32 125 0.0 0.0 0.00 0.00 0.00 100 1005.1
20260509214456 32 125 0.0 0.0 0.00 0.00 0.00 100 1005.1
20260509214356 32 125 0.0 0.0 0.00 0.00 0.00 100 1005.1
20260509214257 32 125 0.0 0.0 0.00 0.00 0.00 100 1005.0
20260509214155 32 125 0.0 0.0 0.00 0.00 0.00 100 1005.1
20260509214056 32 183 0.0 0.0 0.00 0.00 0.00 100 1005.0
20260509213957 32 183 0.0 0.0 0.00 0.00 0.00 100 1005.1
20260509213857 32 183 0.0 0.0 0.00 0.00 0.00 100 1005.0
20260509213756 32 183 0.0 0.0 0.00 0.00 0.00 100 1005.0
20260509213656 32 183 0.0 0.0 0.00 0.00 0.00 100 1005.0
20260509213556 31 183 0.0 0.0 0.00 0.00 0.00 100 1005.0
20260509213456 32 183 0.0 0.0 0.00 0.00 0.00 100 1005.0
20260509213357 31 183 0.0 0.0 0.00 0.00 0.00 100 1004.9
20260509213256 31 183 0.0 0.0 0.00 0.00 0.00 100 1004.9
20260509213157 31 183 0.0 0.0 0.00 0.00 0.00 100 1004.9
20260509213056 31 247 0.0 0.0 0.00 0.00 0.00 100 1005.0
20260509212957 31 247 0.0 0.0 0.00 0.00 0.00 100 1004.9
20260509212858 31 247 0.0 0.0 0.00 0.00 0.00 100 1005.0
20260509212756 31 274 0.0 0.0 0.00 0.00 0.00 100 1005.0
20260509212657 31 274 0.0 0.0 0.00 0.00 0.00 100 1005.0
20260509212557 31 274 0.0 0.0 0.00 0.00 0.00 100 1005.0
20260509212456 31 272 0.0 0.0 0.00 0.00 0.00 100 1005.0
20260509212356 31 262 0.0 4.8 0.00 0.00 0.00 100 1005.0
20260509212256 31 262 0.0 4.8 0.00 0.00 0.00 100 1005.1
20260509212156 31 262 0.0 4.8 0.00 0.00 0.00 100 1005.0
20260509212056 31 262 0.0 4.8 0.00 0.00 0.00 100 1005.0
20260509211956 31 262 0.0 4.8 0.00 0.00 0.00 100 1005.1
20260509211856 31 262 0.0 4.8 0.00 0.00 0.00 100 1005.1
20260509211755 31 262 0.0 4.8 0.00 0.00 0.00 100 1005.2
20260509211657 31 262 0.0 4.8 0.00 0.00 0.00 100 1005.1
20260509211556 31 262 1.6 4.8 0.00 0.00 0.00 100 1005.2
20260509211452 31 252 3.2 4.8 0.00 0.00 0.00 100 1005.2
20260509211345 31 254 0.0 0.0 0.00 0.00 0.00 100 1005.2
20260509211232 31 254 0.0 0.0 0.00 0.00 0.00 100 1005.1
20260509211132 31 254 0.0 0.0 0.00 0.00 0.00 100 1005.1
20260509211032 31 254 0.0 0.0 0.00 0.00 0.00 100 1005.2
20260509210903 31 224 0.0 0.0 0.00 0.00 0.00 100 1005.2
20260509210804 31 195 0.0 0.0 0.00 0.00 0.00 100 1005.2
20260509210703 31 214 0.0 0.0 0.00 0.00 0.00 100 1005.2
20260509210603 31 214 0.0 0.0 0.00 0.00 0.00 100 1005.3
20260509210503 31 217 0.0 0.0 0.00 0.00 0.00 100 1005.3
20260509210402 31 217 0.0 0.0 0.00 0.00 0.00 100 1005.3
20260509210302 31 313 0.0 0.0 0.00 0.00 0.00 100 1005.3
20260509210202 31 279 0.0 0.0 0.00 0.00 0.00 100 1005.3
20260509210004 31 299 0.0 0.0 0.00 0.00 0.00 100 1005.3
20260509205903 31 306 0.0 0.0 0.00 0.00 0.00 100 1005.3
20260509205804 31 344 0.0 0.0 0.00 0.00 0.00 100 1005.3
20260509205703 31 344 0.0 0.0 0.00 0.00 0.00 100 1005.3
20260509205603 31 344 0.0 0.0 0.00 0.00 0.00 100 1005.4
20260509205503 31 344 0.0 0.0 0.00 0.00 0.00 100 1005.4
20260509205403 31 344 0.0 0.0 0.00 0.00 0.00 100 1005.3
20260509205306 31 344 0.0 0.0 0.00 0.00 0.00 100 1005.3
20260509205203 31 8 0.0 0.0 0.00 0.00 0.00 100 1005.4
20260509205102 31 25 0.0 0.0 0.00 0.00 0.00 100 1005.4
20260509205003 31 310 0.0 0.0 0.00 0.00 0.00 100 1005.3
20260509204903 31 269 0.0 0.0 0.00 0.00 0.00 100 1005.3
20260509204804 31 78 0.0 0.0 0.00 0.00 0.00 100 1005.3
20260509204703 31 17 0.0 0.0 0.00 0.00 0.00 100 1005.3
20260509204603 31 56 0.0 0.0 0.00 0.00 0.00 100 1005.3
20260509204503 31 0 0.0 0.0 0.00 0.00 0.00 100 1005.4
20260509204403 31 0 0.0 0.0 0.00 0.00 0.00 100 1005.3
20260509204302 31 0 0.0 0.0 0.00 0.00 0.00 100 1005.3
20260509204202 31 31 0.0 0.0 0.00 0.00 0.00 100 1005.3
20260509204102 31 38 0.0 0.0 0.00 0.03 0.00 100 1005.4
20260509204004 31 39 0.0 0.0 0.00 0.03 0.00 100 1005.3
20260509203903 31 35 0.0 0.0 0.00 0.03 0.00 100 1005.3
20260509203803 31 38 0.0 0.0 0.00 0.03 0.00 100 1005.4
20260509203702 31 37 0.0 0.0 0.00 0.03 0.00 100 1005.4
20260509203603 31 38 0.0 0.0 0.00 0.03 0.00 100 1005.5
20260509203504 31 0 0.0 0.0 0.00 0.03 0.00 100 1005.5
20260509203402 31 0 0.0 0.0 0.00 0.03 0.00 100 1005.5
20260509203303 31 14 0.0 0.0 0.00 0.03 0.00 100 1005.5
20260509203203 31 1 0.0 0.0 0.00 0.03 0.00 100 1005.6
20260509203103 31 4 0.0 0.0 0.00 0.03 0.00 100 1005.5
20260509203003 31 231 0.0 3.2 0.00 0.05 0.00 100 1005.6
20260509202903 30 39 0.0 6.4 0.00 0.05 0.00 100 1005.6
20260509202802 30 39 0.0 8.0 0.00 0.08 0.00 100 1005.6
20260509202703 30 241 0.0 8.0 0.00 0.08 0.00 100 1005.7
20260509202603 30 241 0.0 8.0 0.00 0.08 0.00 100 1005.6
20260509202503 30 241 0.0 8.0 0.00 0.08 0.00 100 1005.6
20260509202402 30 241 0.0 8.0 0.00 0.10 0.00 100 1005.7
20260509202306 30 252 0.0 8.0 0.00 0.10 0.00 100 1005.7
20260509202202 30 252 1.6 8.0 0.00 0.10 0.00 100 1005.7
20260509202103 30 251 3.2 8.0 0.00 0.10 0.00 100 1005.7
20260509202004 30 264 6.4 8.0 0.00 0.10 0.00 100 1005.8
20260509201903 30 252 6.4 8.0 0.00 0.10 0.00 100 1005.8
20260509201803 30 305 6.4 8.0 0.00 0.10 0.00 100 1005.8
20260509201701 30 298 4.8 8.0 0.00 0.10 0.00 100 1005.8
20260509201603 30 316 3.2 8.0 0.00 0.10 0.00 100 1005.8
20260509201503 30 39 3.2 8.0 0.00 0.10 0.00 100 1005.8
20260509201403 30 54 4.8 8.0 0.00 0.10 0.00 100 1005.8
20260509201303 30 300 4.8 9.7 0.00 0.10 0.00 100 1005.9
20260509201203 30 313 4.8 9.7 0.00 0.10 0.00 100 1005.9
20260509201104 30 313 4.8 9.7 0.00 0.10 0.00 100 1005.9
20260509201003 30 313 4.8 9.7 0.00 0.10 0.00 100 1005.8
20260509200903 30 307 1.6 9.7 0.00 0.10 0.00 100 1005.8
20260509200801 30 54 0.0 9.7 0.00 0.10 0.00 100 1005.8
20260509200703 30 55 1.6 9.7 0.00 0.10 0.00 100 1005.8
20260509200603 30 17 3.2 9.7 0.00 0.10 0.00 100 1005.9
20260509200504 30 299 6.4 9.7 0.00 0.10 0.00 100 1005.8
20260509200403 30 302 6.4 9.7 0.00 0.10 0.00 100 1005.9
20260509200304 30 319 3.2 6.4 0.00 0.10 0.00 100 1005.9
20260509200203 30 309 3.2 6.4 0.00 0.10 0.00 100 1005.9
20260509200004 30 327 1.6 6.4 0.00 0.10 0.00 100 1006.0
20260509195904 30 272 1.6 6.4 0.00 0.10 0.00 100 1005.9
20260509195802 30 272 1.6 6.4 0.00 0.10 0.00 100 1005.9
20260509195704 30 320 3.2 6.4 0.00 0.10 0.00 100 1005.9
20260509195603 30 320 3.2 9.7 0.00 0.10 0.00 100 1006.0
20260509195503 30 320 3.2 9.7 0.00 0.10 0.00 100 1006.0
20260509195403 30 0 3.2 9.7 0.00 0.10 0.00 100 1006.0
20260509195302 30 14 3.2 9.7 0.00 0.10 0.00 100 1006.0
20260509195204 30 324 3.2 9.7 0.00 0.10 0.00 100 1006.0
20260509195102 30 309 3.2 9.7 0.00 0.10 0.00 100 1006.0
20260509195004 30 321 3.2 9.7 0.00 0.10 0.00 100 1006.0
20260509194901 30 330 3.2 9.7 0.00 0.10 0.00 100 1006.0
20260509194803 30 330 6.4 9.7 0.00 0.10 0.00 100 1006.0
20260509194703 30 290 4.8 9.7 0.00 0.10 0.00 100 1006.0
20260509194602 30 314 3.2 8.0 0.00 0.10 0.00 100 1006.0
20260509194502 30 83 3.2 8.0 0.00 0.10 0.00 100 1006.0
20260509194402 30 317 4.8 8.0 0.00 0.10 0.00 100 1006.0
20260509194303 30 278 4.8 8.0 0.00 0.10 0.00 100 1006.1
20260509194203 30 275 4.8 8.0 0.00 0.10 0.00 100 1006.2
20260509194102 30 3 4.8 8.0 0.00 0.10 0.00 100 1006.2
20260509194002 30 281 4.8 9.7 0.00 0.10 0.00 100 1006.2
20260509193902 30 289 3.2 9.7 0.00 0.10 0.00 100 1006.2
20260509193803 29 306 3.2 9.7 0.00 0.10 0.00 100 1006.2
20260509193704 29 329 3.2 9.7 0.00 0.10 0.00 100 1006.3
20260509193603 29 244 3.2 9.7 0.00 0.10 0.00 100 1006.2
20260509193504 29 212 4.8 9.7 0.00 0.10 0.00 100 1006.3
20260509193402 29 200 6.4 9.7 0.00 0.10 0.00 100 1006.3
20260509193303 29 217 4.8 9.7 0.00 0.10 0.00 100 1006.3
20260509193204 29 244 3.2 9.7 0.00 0.10 0.00 100 1006.2
20260509193104 29 265 6.4 9.7 0.00 0.10 0.00 100 1006.3
20260509193004 29 274 6.4 9.7 0.00 0.10 0.00 100 1006.3
20260509192903 29 255 6.4 8.0 0.00 0.10 0.00 100 1006.3
20260509192803 29 266 4.8 8.0 0.00 0.10 0.00 100 1006.3
20260509192702 29 245 3.2 8.0 0.00 0.10 0.00 100 1006.3
20260509192604 29 279 3.2 8.0 0.00 0.10 0.00 100 1006.4
20260509192503 29 240 3.2 9.7 0.00 0.10 0.00 100 1006.3
20260509192402 29 269 3.2 9.7 0.00 0.10 0.00 100 1006.3
20260509192305 29 269 3.2 9.7 0.00 0.10 0.00 100 1006.3
20260509192203 29 279 6.4 9.7 0.00 0.10 0.00 100 1006.3
20260509192103 29 278 6.4 9.7 0.00 0.10 0.00 100 1006.3
20260509192002 29 286 4.8 9.7 0.00 0.10 0.00 100 1006.3
20260509191902 29 320 3.2 9.7 0.00 0.10 0.00 100 1006.3
20260509191802 29 250 3.2 9.7 0.00 0.10 0.00 100 1006.3
20260509191703 29 290 3.2 9.7 0.00 0.10 0.00 100 1006.4
20260509191602 29 306 4.8 9.7 0.00 0.10 0.00 100 1006.4
20260509191503 29 223 6.4 9.7 0.00 0.10 0.00 100 1006.4
20260509191402 29 223 6.4 9.7 0.00 0.10 0.00 100 1006.5
20260509191303 28 214 3.2 9.7 0.00 0.10 0.00 100 1006.5
20260509191202 28 330 3.2 9.7 0.00 0.10 0.00 100 1006.4
20260509191102 28 265 3.2 9.7 0.00 0.10 0.00 100 1006.5
20260509191004 28 268 4.8 9.7 0.00 0.10 0.00 100 1006.5
20260509190904 28 286 6.4 9.7 0.00 0.10 0.00 100 1006.5
20260509190802 28 285 6.4 9.7 0.00 0.10 0.00 100 1006.5
20260509190701 28 276 6.4 9.7 0.00 0.10 0.00 100 1006.5
20260509190603 28 224 6.4 9.7 0.00 0.10 0.00 100 1006.5
20260509190504 28 241 8.0 9.7 0.00 0.10 0.00 100 1006.5
20260509190402 28 279 8.0 14.5 0.00 0.10 0.00 100 1006.5
20260509190302 28 293 4.8 14.5 0.00 0.10 0.00 100 1006.5
20260509190203 28 231 4.8 14.5 0.00 0.10 0.00 100 1006.5
20260509190003 28 305 4.8 14.5 0.00 0.10 0.00 100 1006.5
20260509185904 28 302 4.8 14.5 0.00 0.10 0.00 100 1006.5
20260509185802 28 288 4.8 14.5 0.00 0.10 0.00 100 1006.6
20260509185702 28 244 6.4 14.5 0.00 0.10 0.00 100 1006.6
20260509185603 28 266 8.0 14.5 0.00 0.10 0.00 100 1006.6
20260509185505 28 261 8.0 14.5 0.00 0.10 0.00 100 1006.6
20260509185402 28 248 8.0 16.1 0.00 0.10 0.00 100 1006.6
20260509185306 28 255 8.0 16.1 0.00 0.10 0.00 100 1006.7
20260509185202 28 309 6.4 16.1 0.00 0.10 0.00 100 1006.7
20260509185102 28 268 3.2 16.1 0.00 0.10 0.00 100 1006.6
20260509185003 28 166 3.2 16.1 0.00 0.10 0.00 100 1006.7
20260509184903 28 317 3.2 16.1 0.00 0.10 0.00 100 1006.7
20260509184803 28 276 4.8 17.7 0.00 0.10 0.00 100 1006.8
20260509184703 28 272 6.4 17.7 0.00 0.10 0.00 100 1006.7
20260509184604 28 313 9.7 17.7 0.00 0.10 0.00 100 1006.8
20260509184502 28 254 9.7 17.7 0.00 0.10 0.00 100 1006.8
20260509184403 28 159 4.8 17.7 0.00 0.10 0.00 100 1006.8
20260509184302 28 189 3.2 17.7 0.00 0.10 0.00 100 1006.8
20260509184203 28 180 3.2 17.7 0.00 0.10 0.00 100 1006.8
20260509184102 28 189 4.8 17.7 0.00 0.10 0.00 100 1006.8
20260509184003 28 200 8.0 17.7 0.00 0.10 0.00 100 1006.8
20260509183902 28 217 8.0 17.7 0.00 0.10 0.00 100 1006.8
20260509183803 28 173 6.4 14.5 0.00 0.10 0.00 100 1006.9
20260509183703 28 295 6.4 14.5 0.00 0.10 0.00 100 1006.9
20260509183603 28 295 6.4 14.5 0.00 0.10 0.00 100 1006.8
20260509183503 28 193 4.8 11.3 0.00 0.10 0.00 100 1006.8
20260509183401 28 241 4.8 11.3 0.00 0.10 0.00 100 1006.8
20260509183302 28 213 4.8 11.3 0.00 0.10 0.00 100 1006.9
20260509183203 28 182 4.8 11.3 0.00 0.10 0.00 100 1006.9
20260509183104 28 224 4.8 11.3 0.00 0.10 0.00 100 1006.9
20260509183003 28 199 6.4 11.3 0.00 0.10 0.00 100 1006.9
20260509182902 28 274 6.4 11.3 0.00 0.10 0.00 100 1006.8
20260509182803 28 207 6.4 11.3 0.00 0.10 0.00 100 1006.8
20260509182703 28 289 6.4 14.5 0.00 0.10 0.00 100 1006.9
20260509182604 28 217 6.4 14.5 0.00 0.10 0.00 100 1006.9
20260509182503 28 206 4.8 14.5 0.00 0.10 0.00 100 1006.8
20260509182403 28 258 6.4 14.5 0.00 0.10 0.00 100 1006.9
20260509182306 28 200 4.8 14.5 0.00 0.10 0.00 100 1006.9
20260509182202 28 289 6.4 14.5 0.00 0.10 0.00 100 1006.9
20260509182103 28 227 8.0 14.5 0.00 0.10 0.00 100 1007.0
20260509182002 28 250 8.0 14.5 0.00 0.10 0.00 100 1007.0
20260509181904 28 240 8.0 14.5 0.00 0.10 0.00 100 1007.0
20260509181803 28 207 8.0 14.5 0.00 0.10 0.00 100 1007.1
20260509181702 28 274 6.4 14.5 0.00 0.10 0.00 100 1007.1
20260509181604 28 221 6.4 14.5 0.00 0.10 0.00 100 1007.1
20260509181501 28 197 6.4 14.5 0.00 0.10 0.00 100 1007.1
20260509181402 28 237 8.0 14.5 0.00 0.10 0.00 100 1007.2
20260509181303 28 190 8.0 14.5 0.00 0.10 0.00 100 1007.2
20260509181203 28 227 4.8 11.3 0.00 0.10 0.00 100 1007.2
20260509181102 28 221 4.8 11.3 0.00 0.10 0.00 100 1007.2
20260509181003 28 227 6.4 11.3 0.00 0.10 0.00 100 1007.2
20260509180903 28 252 6.4 11.3 0.00 0.10 0.00 100 1007.2
20260509180803 28 206 6.4 11.3 0.00 0.10 0.00 100 1007.1
20260509180703 28 268 6.4 11.3 0.00 0.10 0.00 100 1007.2
20260509180603 28 190 6.4 11.3 0.00 0.10 0.00 100 1007.2
20260509180502 28 272 4.8 11.3 0.00 0.10 0.00 100 1007.2
20260509180403 28 226 4.8 11.3 0.00 0.10 0.00 100 1007.3
20260509180303 28 204 4.8 11.3 0.00 0.10 0.00 100 1007.3
20260509180202 28 268 4.8 11.3 0.00 0.10 0.00 100 1007.3
20260509180103 27 166 3.2 11.3 0.00 0.10 0.00 100 1007.3
20260509180005 27 209 3.2 11.3 0.00 0.10 0.00 100 1007.3
20260509175902 27 224 4.8 11.3 0.00 0.10 0.00 100 1007.2
20260509175804 27 164 4.8 14.5 0.00 0.10 0.00 100 1007.2
20260509175702 27 147 4.8 14.5 0.00 0.10 0.00 100 1007.3
20260509175602 27 192 6.4 14.5 0.00 0.10 0.00 100 1007.3
20260509175502 27 214 6.4 14.5 0.00 0.10 0.00 100 1007.3
20260509175404 27 243 4.8 14.5 0.00 0.10 0.00 100 1007.3
20260509175306 27 171 4.8 14.5 0.00 0.10 0.00 100 1007.3
20260509175203 27 259 8.0 14.5 0.00 0.10 0.00 100 1007.3
20260509175103 27 231 6.4 14.5 0.00 0.10 0.00 100 1007.3
20260509175004 27 336 4.8 14.5 0.00 0.10 0.00 100 1007.3
20260509174903 27 295 4.8 14.5 0.00 0.10 0.00 100 1007.2
20260509174804 27 214 3.2 11.3 0.00 0.10 0.00 100 1007.3
20260509174703 27 264 3.2 11.3 0.00 0.10 0.00 100 1007.3
20260509174602 27 245 4.8 11.3 0.00 0.10 0.00 100 1007.3
20260509174504 27 257 3.2 11.3 0.00 0.10 0.00 100 1007.4
20260509174404 27 210 3.2 11.3 0.00 0.10 0.00 100 1007.3
20260509174301 27 227 3.2 11.3 0.00 0.10 0.00 100 1007.4
20260509174202 27 212 4.8 11.3 0.00 0.10 0.00 100 1007.4
20260509174102 27 190 6.4 11.3 0.00 0.10 0.00 100 1007.5
20260509174004 27 226 8.0 11.3 0.00 0.10 0.00 100 1007.5
20260509173903 27 237 4.8 9.7 0.00 0.10 0.00 100 1007.5
20260509173803 27 245 3.2 9.7 0.00 0.10 0.00 100 1007.6
20260509173703 27 252 4.8 9.7 0.00 0.10 0.00 100 1007.5
20260509173603 27 230 6.4 9.7 0.00 0.10 0.00 100 1007.6
20260509173502 27 286 6.4 8.0 0.00 0.10 0.00 100 1007.6
20260509173403 27 221 4.8 8.0 0.00 0.10 0.00 100 1007.6
20260509173303 27 203 3.2 8.0 0.00 0.10 0.00 100 1007.6
20260509173203 27 173 3.2 8.0 0.00 0.10 0.00 100 1007.6
20260509173102 27 235 4.8 8.0 0.00 0.10 0.00 100 1007.7
20260509173003 27 228 4.8 8.0 0.00 0.10 0.00 100 1007.7
20260509172901 27 197 1.6 8.0 0.00 0.10 0.00 100 1007.7
20260509172801 27 152 1.6 9.7 0.00 0.10 0.00 100 1007.6
20260509172703 27 149 3.2 9.7 0.00 0.10 0.00 100 1007.7
20260509172604 27 166 3.2 9.7 0.00 0.10 0.00 100 1007.7
20260509172504 27 161 3.2 9.7 0.00 0.10 0.00 100 1007.7
20260509172403 26 123 4.8 9.7 0.00 0.10 0.00 100 1007.6
20260509172305 26 199 3.2 9.7 0.00 0.10 0.00 100 1007.7
20260509172203 26 237 3.2 9.7 0.00 0.10 0.00 100 1007.7
20260509172104 26 152 3.2 9.7 0.00 0.10 0.00 100 1007.7
20260509172004 26 224 6.4 9.7 0.00 0.10 0.00 100 1007.7
20260509171903 26 219 6.4 9.7 0.00 0.10 0.00 100 1007.7
20260509171803 26 226 6.4 9.7 0.00 0.10 0.00 100 1007.7
20260509171702 26 202 4.8 9.7 0.00 0.10 0.00 100 1007.7
20260509171603 26 152 3.2 9.7 0.00 0.10 0.00 100 1007.7
20260509171504 26 238 3.2 9.7 0.00 0.10 0.00 100 1007.7
20260509171403 26 237 3.2 9.7 0.00 0.10 0.00 100 1007.7
20260509171303 26 197 3.2 9.7 0.00 0.10 0.00 100 1007.7
20260509171202 26 264 3.2 9.7 0.00 0.10 0.00 100 1007.7
20260509171103 26 264 3.2 9.7 0.00 0.10 0.00 100 1007.6
20260509171004 26 274 6.4 9.7 0.00 0.10 0.00 100 1007.5
20260509170903 26 241 6.4 9.7 0.00 0.10 0.00 100 1007.6
20260509170803 26 202 4.8 9.7 0.00 0.10 0.00 100 1007.6
20260509170701 26 238 4.8 9.7 0.00 0.10 0.00 100 1007.6
20260509170602 26 247 3.2 9.7 0.00 0.10 0.00 100 1007.6
20260509170504 26 286 3.2 9.7 0.00 0.10 0.00 100 1007.5
20260509170402 26 278 3.2 9.7 0.00 0.10 0.00 100 1007.5
20260509170304 26 269 4.8 9.7 0.00 0.10 0.00 100 1007.5
20260509170203 26 257 3.2 9.7 0.00 0.10 0.00 100 1007.5
20260509170002 26 199 3.2 9.7 0.00 0.10 0.00 100 1007.5
20260509165903 26 200 3.2 9.7 0.00 0.10 0.00 100 1007.5
20260509165803 26 266 1.6 8.0 0.00 0.10 0.00 100 1007.5
20260509165702 26 286 3.2 8.0 0.00 0.10 0.00 100 1007.5
20260509165604 26 250 1.6 8.0 0.00 0.10 0.00 100 1007.5
20260509165503 26 293 1.6 8.0 0.00 0.10 0.00 100 1007.5
20260509165403 26 310 3.2 8.0 0.00 0.10 0.00 100 1007.5
20260509165306 26 317 4.8 8.0 0.00 0.10 0.00 100 1007.6
20260509165203 26 257 4.8 9.7 0.00 0.10 0.00 100 1007.6
20260509165104 26 257 3.2 11.3 0.00 0.10 0.00 100 1007.7
20260509165002 26 197 3.2 11.3 0.00 0.10 0.00 100 1007.6
20260509164903 26 200 4.8 11.3 0.00 0.10 0.00 100 1007.7
20260509164803 26 196 4.8 11.3 0.00 0.10 0.00 100 1007.7
20260509164703 26 241 4.8 11.3 0.00 0.10 0.00 100 1007.7
20260509164603 26 227 4.8 11.3 0.00 0.10 0.00 100 1007.7
20260509164504 26 264 6.4 11.3 0.00 0.10 0.00 100 1007.7
20260509164402 26 202 6.4 11.3 0.00 0.10 0.00 100 1007.6
20260509164303 26 207 6.4 11.3 0.00 0.10 0.00 100 1007.6
20260509164203 26 221 4.8 11.3 0.00 0.10 0.00 100 1007.7
20260509164103 26 200 1.6 8.0 0.00 0.10 0.00 100 1007.6
20260509164002 26 200 3.2 8.0 0.00 0.10 0.00 100 1007.6
20260509163904 26 214 3.2 8.0 0.00 0.10 0.00 100 1007.7
20260509163802 26 244 3.2 8.0 0.00 0.10 0.00 100 1007.7
20260509163703 26 272 4.8 8.0 0.00 0.10 0.00 100 1007.7
20260509163602 26 290 4.8 8.0 0.00 0.10 0.00 100 1007.7
20260509163502 26 226 6.4 6.4 0.00 0.10 0.00 100 1007.7
20260509163403 26 290 3.2 6.4 0.00 0.10 0.00 100 1007.7
20260509163302 26 254 3.2 6.4 0.00 0.10 0.00 100 1007.7
20260509163203 26 266 3.2 6.4 0.00 0.10 0.00 100 1007.7
20260509163101 26 209 3.2 6.4 0.00 0.10 0.00 100 1007.7
20260509163003 26 203 3.2 6.4 0.00 0.10 0.00 100 1007.7
20260509162903 26 238 3.2 6.4 0.00 0.10 0.00 100 1007.7
20260509162803 26 271 4.8 6.4 0.00 0.10 0.00 100 1007.7
20260509162703 26 290 4.8 6.4 0.00 0.10 0.00 100 1007.7
20260509162602 26 290 4.8 6.4 0.00 0.10 0.00 100 1007.7
20260509162503 26 230 3.2 6.4 0.00 0.10 0.00 100 1007.7
20260509162403 26 233 3.2 6.4 0.00 0.10 0.00 100 1007.7
20260509162306 26 250 3.2 6.4 0.00 0.10 0.00 100 1007.8
20260509162203 26 299 3.2 6.4 0.00 0.10 0.00 100 1007.7
20260509162102 26 285 0.0 6.4 0.00 0.10 0.00 100 1007.7
20260509162003 26 274 1.6 6.4 0.00 0.10 0.00 100 1007.7
20260509161903 26 274 3.2 6.4 0.00 0.10 0.00 100 1007.7
20260509161802 26 265 4.8 6.4 0.00 0.10 0.00 100 1007.7
20260509161703 26 276 3.2 4.8 0.00 0.10 0.00 100 1007.7
20260509161604 26 272 1.6 3.2 0.00 0.10 0.00 100 1007.7
20260509161504 25 141 0.0 3.2 0.00 0.10 0.00 100 1007.6
20260509161403 25 141 0.0 3.2 0.00 0.10 0.00 100 1007.6
20260509161303 25 141 0.0 3.2 0.00 0.10 0.00 100 1007.6
20260509161203 25 141 0.0 4.8 0.00 0.10 0.00 100 1007.7
20260509161104 25 141 0.0 4.8 0.00 0.10 0.00 100 1007.6
20260509161002 25 141 0.0 4.8 0.00 0.10 0.00 100 1007.6
20260509160903 25 141 1.6 4.8 0.00 0.10 0.00 100 1007.7
20260509160803 25 141 1.6 4.8 0.00 0.10 0.00 100 1007.7
20260509160702 25 247 0.0 4.8 0.00 0.10 0.00 100 1007.7
20260509160603 25 266 1.6 4.8 0.00 0.10 0.00 100 1007.8
20260509160502 25 266 1.6 4.8 0.00 0.10 0.00 100 1007.8
20260509160403 25 266 1.6 4.8 0.00 0.10 0.00 100 1007.8
20260509160304 25 266 1.6 4.8 0.00 0.10 0.00 100 1007.8
20260509160202 25 258 3.2 4.8 0.00 0.10 0.00 100 1007.8
20260509160104 25 288 3.2 4.8 0.00 0.10 0.00 100 1007.8
20260509160004 25 288 3.2 4.8 0.00 0.10 0.00 100 1007.9
20260509155903 25 307 3.2 4.8 0.00 0.10 0.00 100 1007.9
20260509155803 25 305 3.2 4.8 0.00 0.10 0.00 100 1007.9
20260509155703 25 312 3.2 4.8 0.00 0.10 0.00 100 1008.0
20260509155603 25 306 0.0 4.8 0.00 0.10 0.00 100 1008.0
20260509155504 25 244 1.6 4.8 0.00 0.10 0.00 100 1007.9
20260509155404 25 244 3.2 4.8 0.00 0.10 0.00 100 1007.9
20260509155306 25 237 3.2 4.8 0.00 0.10 0.00 100 1008.0
20260509155202 25 237 3.2 4.8 0.00 0.10 0.00 100 1007.9
20260509155103 25 289 1.6 4.8 0.00 0.10 0.00 100 1008.0
20260509155002 25 289 1.6 4.8 0.00 0.10 0.00 100 1007.9
20260509154903 25 159 0.0 3.2 0.00 0.10 0.00 100 1007.9
20260509154803 25 231 0.0 3.2 0.00 0.10 0.00 100 1007.9
20260509154704 25 231 0.0 3.2 0.00 0.10 0.00 100 1007.9
20260509154602 25 231 1.6 3.2 0.00 0.10 0.00 100 1007.9
20260509154505 25 310 1.6 3.2 0.00 0.10 0.00 100 1007.9
20260509154403 25 300 1.6 8.0 0.00 0.10 0.00 100 1007.9
20260509154303 25 228 1.6 8.0 0.00 0.10 0.00 100 1007.9
20260509154204 25 257 1.6 8.0 0.00 0.10 0.00 100 1007.9
20260509154103 25 289 3.2 8.0 0.00 0.10 0.00 100 1007.9
20260509154005 25 298 0.0 8.0 0.00 0.10 0.00 100 1007.8
20260509153903 25 298 0.0 8.0 0.00 0.10 0.00 100 1007.7
20260509153802 25 298 0.0 8.0 0.00 0.10 0.00 100 1007.7
20260509153703 25 298 3.2 8.0 0.00 0.10 0.00 100 1007.8
20260509153604 25 296 4.8 8.0 0.00 0.10 0.00 100 1007.7
20260509153503 25 286 4.8 8.0 0.00 0.10 0.00 100 1007.8
20260509153401 25 302 3.2 4.8 0.00 0.10 0.00 100 1007.8
20260509153302 25 279 3.2 4.8 0.00 0.10 0.00 100 1007.7
20260509153203 25 289 3.2 4.8 0.00 0.10 0.00 100 1007.8
20260509153104 25 289 1.6 4.8 0.00 0.10 0.00 100 1007.8
20260509153003 25 227 0.0 1.6 0.00 0.10 0.00 100 1007.8
20260509152903 25 227 0.0 4.8 0.00 0.10 0.00 100 1007.8
20260509152803 25 227 0.0 4.8 0.00 0.10 0.00 100 1007.8
20260509152703 25 227 0.0 4.8 0.00 0.10 0.00 100 1007.9
20260509152602 24 227 0.0 4.8 0.00 0.10 0.00 100 1007.8
20260509152504 25 227 0.0 4.8 0.00 0.10 0.00 100 1007.9
20260509152402 25 227 0.0 4.8 0.00 0.10 0.00 100 1007.9
20260509152306 24 227 0.0 4.8 0.00 0.10 0.00 100 1007.9
20260509152202 24 227 1.6 4.8 0.00 0.10 0.00 100 1007.9
20260509152103 24 227 3.2 4.8 0.00 0.10 0.00 100 1007.9
20260509152005 24 227 3.2 4.8 0.00 0.10 0.00 100 1007.9
20260509151904 24 228 0.0 3.2 0.00 0.10 0.00 100 1008.0
20260509151802 24 266 0.0 3.2 0.00 0.10 0.00 100 1007.9
20260509151704 24 299 0.0 3.2 0.00 0.10 0.00 100 1007.9
20260509151603 24 310 0.0 3.2 0.00 0.10 0.00 100 1007.9
20260509151503 24 321 1.6 3.2 0.00 0.10 0.00 100 1007.9
20260509151404 24 321 1.6 3.2 0.00 0.10 0.00 100 1008.0
20260509151304 24 326 1.6 3.2 0.00 0.10 0.00 100 1008.0
20260509151201 24 288 0.0 3.2 0.00 0.10 0.00 100 1008.0
20260509151103 24 286 0.0 1.6 0.00 0.10 0.00 100 1008.0
20260509151002 24 286 1.6 1.6 0.00 0.10 0.00 100 1008.0
20260509150904 24 286 1.6 1.6 0.00 0.10 0.00 100 1008.0
20260509150802 24 295 0.0 0.0 0.00 0.10 0.00 100 1008.0
20260509150703 -17 0.0 0.0 0.00 0.10 0.00 1007.9
20260509150603 -17 299 0.0 0.0 0.00 0.10 0.00 1007.9
20260509150503 24 299 0.0 1.6 0.00 0.10 0.00 100 1008.0
20260509150403 24 299 0.0 1.6 0.00 0.10 0.00 100 1008.0
20260509150303 24 299 0.0 1.6 0.00 0.10 0.00 100 1008.0
20260509150203 24 299 0.0 1.6 0.00 0.10 0.00 100 1008.0
20260509150103 24 299 0.0 1.6 0.00 0.10 0.00 100 1008.0
20260509150003 24 299 0.0 3.2 0.00 0.10 0.00 100 1007.9
20260509145904 24 299 0.0 3.2 0.00 0.10 0.00 100 1007.9
20260509145804 24 299 0.0 3.2 0.00 0.10 0.00 100 1007.9
20260509145703 24 299 0.0 3.2 0.00 0.10 0.00 100 1007.8
20260509145602 24 299 0.0 3.2 0.00 0.10 0.00 100 1007.8
20260509145504 24 299 0.0 3.2 0.00 0.10 0.00 100 1007.8
20260509145403 24 299 0.0 3.2 0.00 0.10 0.00 100 1007.8
20260509145306 24 299 0.0 3.2 0.00 0.10 0.00 100 1007.8
20260509145203 24 299 1.6 3.2 0.00 0.10 0.00 100 1007.8
20260509145103 24 299 1.6 3.2 0.00 0.10 0.00 100 1007.7
20260509145004 24 0 0.0 3.2 0.00 0.10 0.00 100 1007.7
20260509144901 24 235 0.0 3.2 0.00 0.10 0.00 100 1007.7
20260509144803 24 235 0.0 3.2 0.00 0.10 0.00 100 1007.7
20260509144704 24 235 1.6 3.2 0.00 0.10 0.00 100 1007.7
20260509144601 24 235 1.6 4.8 0.00 0.10 0.00 100 1007.7
20260509144504 24 235 3.2 4.8 0.00 0.10 0.00 100 1007.7
20260509144402 24 235 1.6 4.8 0.00 0.10 0.00 100 1007.9
20260509144303 24 185 1.6 4.8 0.00 0.10 0.00 100 1007.8
20260509144203 24 185 1.6 4.8 0.00 0.10 0.00 100 1007.7
20260509144103 24 185 1.6 4.8 0.00 0.10 0.00 100 1007.7
20260509144003 24 185 1.6 4.8 0.00 0.10 0.00 100 1007.7
20260509143903 24 185 1.6 4.8 0.00 0.10 0.00 100 1007.6
20260509143804 24 185 1.6 4.8 0.00 0.10 0.00 100 1007.6
20260509143704 24 185 1.6 4.8 0.00 0.10 0.00 100 1007.6
20260509143604 24 199 0.0 3.2 0.00 0.10 0.00 100 1007.7
20260509143504 24 199 0.0 3.2 0.00 0.10 0.00 100 1007.6
20260509143403 24 212 1.6 3.2 0.00 0.10 0.00 100 1007.5
20260509143303 24 212 3.2 3.2 0.00 0.10 0.00 100 1007.4
20260509143204 24 212 1.6 3.2 0.00 0.10 0.00 100 1007.4
20260509143103 24 212 3.2 3.2 0.00 0.10 0.00 100 1007.3
20260509143003 24 159 3.2 3.2 0.00 0.10 0.00 100 1007.3
20260509142902 24 159 3.2 3.2 0.00 0.10 0.00 100 1007.2
20260509142803 24 159 3.2 3.2 0.00 0.10 0.00 100 1007.2
20260509142704 24 158 3.2 3.2 0.00 0.10 0.00 100 1007.2
20260509142604 24 241 1.6 3.2 0.00 0.10 0.00 100 1007.1
20260509142504 24 241 1.6 3.2 0.00 0.10 0.00 100 1007.2
20260509142401 24 241 1.6 3.2 0.00 0.10 0.00 100 1007.2
20260509142306 24 254 1.6 4.8 0.00 0.10 0.00 100 1007.2
20260509142203 24 268 0.0 4.8 0.00 0.10 0.00 100 1007.3
20260509142103 24 302 0.0 4.8 0.00 0.10 0.00 100 1007.3
20260509142004 24 302 0.0 4.8 0.00 0.10 0.00 100 1007.3
20260509141903 24 302 0.0 4.8 0.00 0.10 0.00 100 1007.4
20260509141803 24 302 0.0 4.8 0.00 0.10 0.00 100 1007.4
20260509141703 24 302 0.0 4.8 0.00 0.10 0.00 100 1007.4
20260509141603 24 302 0.0 4.8 0.00 0.10 0.00 100 1007.5
20260509141504 24 302 1.6 4.8 0.00 0.10 0.00 100 1007.5
20260509141403 24 302 1.6 4.8 0.00 0.10 0.00 100 1007.5
20260509141303 24 300 0.0 4.8 0.00 0.10 0.00 100 1007.5
20260509141202 23 300 0.0 4.8 0.00 0.10 0.00 100 1007.5
20260509141103 23 300 0.0 4.8 0.00 0.10 0.00 100 1007.6
20260509141003 24 300 1.6 4.8 0.00 0.10 0.00 100 1007.5
20260509140902 23 300 1.6 4.8 0.00 0.10 0.00 100 1007.6
20260509140802 24 300 1.6 4.8 0.00 0.10 0.00 100 1007.5
20260509140703 23 300 1.6 4.8 0.00 0.10 0.00 100 1007.6
20260509140602 24 300 3.2 4.8 0.00 0.10 0.00 100 1007.6
20260509140502 24 300 3.2 4.8 0.00 0.10 0.00 100 1007.5
20260509140402 24 295 1.6 4.8 0.00 0.10 0.00 100 1007.6
20260509140303 24 333 1.6 4.8 0.00 0.10 0.00 100 1007.6
20260509140203 24 333 3.2 4.8 0.00 0.10 0.00 100 1007.6
20260509140104 24 299 3.2 4.8 0.00 0.10 0.00 100 1007.7
20260509140003 24 312 3.2 4.8 0.00 0.10 0.00 100 1007.7
20260509135903 24 241 3.2 4.8 0.00 0.10 0.00 100 1007.7
20260509135803 24 234 3.2 4.8 0.00 0.10 0.00 100 1007.7
20260509135701 24 233 3.2 4.8 0.00 0.10 0.00 100 1007.7
20260509135600 24 233 1.6 3.2 0.00 0.10 0.00 100 1007.6
20260509135456 24 233 1.6 3.2 0.00 0.10 0.00 100 1007.6
20260509135351 24 233 1.6 3.2 0.00 0.10 0.00 100 1007.5
20260509135250 23 233 0.0 3.2 0.00 0.10 0.00 100 1007.4
20260509135148 24 233 0.0 3.2 0.00 0.10 0.00 100 1007.3
20260509135043 24 233 0.0 3.2 0.00 0.10 0.00 100 1007.3
20260509134943 23 233 0.0 3.2 0.00 0.10 0.00 100 1007.3
20260509134842 23 233 0.0 3.2 0.00 0.10 0.00 100 1007.3
20260509134742 24 233 0.0 3.2 0.00 0.10 0.00 100 1007.3
20260509134641 24 233 0.0 3.2 0.00 0.10 0.00 100 1007.4
20260509134542 23 233 1.6 3.2 0.00 0.10 0.00 100 1007.5
20260509134442 24 233 1.6 3.2 0.00 0.10 0.00 100 1007.5
20260509134342 24 233 1.6 3.2 0.00 0.10 0.00 100 1007.5
20260509134242 24 233 1.6 3.2 0.00 0.10 0.00 100 1007.5
20260509134143 23 233 1.6 3.2 0.00 0.10 0.00 100 1007.6
20260509134041 23 233 0.0 3.2 0.00 0.10 0.00 100 1007.6
20260509133941 23 233 0.0 3.2 0.00 0.10 0.00 100 1007.6
20260509133842 23 233 0.0 3.2 0.00 0.10 0.00 100 1007.7
20260509133742 23 233 0.0 1.6 0.00 0.10 0.00 100 1007.7
20260509133642 23 233 0.0 1.6 0.00 0.10 0.00 100 1007.7
20260509133541 23 233 0.0 1.6 0.00 0.10 0.00 100 1007.8
20260509133442 23 233 0.0 3.2 0.00 0.10 0.00 100 1007.7
20260509133342 23 233 0.0 3.2 0.00 0.10 0.00 100 1007.7
20260509133242 23 233 0.0 3.2 0.00 0.10 0.00 100 1007.7
20260509133140 23 233 1.6 3.2 0.00 0.10 0.00 100 1007.8
20260509133042 23 233 0.0 3.2 0.00 0.10 0.00 100 1007.8
20260509132943 23 233 0.0 3.2 0.00 0.10 0.00 100 1007.7
20260509132842 23 233 0.0 3.2 0.00 0.10 0.00 100 1007.7
20260509132741 23 233 0.0 3.2 0.00 0.10 0.00 100 1007.8
20260509132642 23 233 0.0 3.2 0.00 0.10 0.00 100 1007.8
20260509132541 23 233 0.0 3.2 0.00 0.10 0.00 100 1007.8
20260509132442 23 233 0.0 3.2 0.00 0.10 0.00 100 1007.8
20260509132343 23 233 0.0 3.2 0.00 0.10 0.00 100 1007.7
20260509132242 23 233 1.6 3.2 0.00 0.10 0.00 100 1007.7
20260509132142 23 233 1.6 3.2 0.00 0.10 0.00 100 1007.7
20260509132041 23 233 0.0 3.2 0.00 0.10 0.00 100 1007.7
20260509131941 23 233 0.0 1.6 0.00 0.10 0.00 100 1007.7
20260509131840 23 233 0.0 1.6 0.00 0.10 0.00 100 1007.8
20260509131736 23 233 0.0 3.2 0.00 0.10 0.00 100 1007.7
20260509131634 23 233 0.0 3.2 0.00 0.10 0.00 100 1007.8
20260509131532 23 233 0.0 3.2 0.00 0.10 0.00 100 1007.9
20260509131424 23 233 0.0 3.2 0.00 0.10 0.00 100 1007.8
20260509131322 23 233 0.0 3.2 0.00 0.10 0.00 100 1007.9
20260509131221 23 233 0.0 3.2 0.00 0.10 0.00 100 1007.9
20260509131119 23 233 0.0 3.2 0.00 0.10 0.00 100 1007.9
20260509131004 23 233 0.0 3.2 0.00 0.10 0.00 100 1007.9
20260509130903 23 233 1.6 3.2 0.00 0.10 0.00 100 1008.0
20260509130802 23 233 1.6 3.2 0.00 0.10 0.00 100 1008.0
20260509130703 23 233 1.6 3.2 0.00 0.10 0.00 100 1008.0
20260509130602 23 169 0.0 3.2 0.00 0.10 0.00 100 1008.0
20260509130503 23 169 0.0 3.2 0.00 0.10 0.00 100 1007.9
20260509130401 23 169 0.0 3.2 0.00 0.10 0.00 100 1007.9
20260509130302 23 169 0.0 3.2 0.00 0.10 0.00 100 1007.9
20260509130203 23 169 0.0 3.2 0.00 0.10 0.00 100 1008.0
20260509130104 23 169 1.6 3.2 0.00 0.10 0.00 100 1008.1
20260509130004 23 169 1.6 3.2 0.00 0.10 0.00 100 1008.0
20260509125903 23 169 1.6 3.2 0.00 0.10 0.00 100 1008.1
20260509125803 23 169 1.6 3.2 0.00 0.10 0.00 100 1008.1
20260509125704 23 168 0.0 3.2 0.00 0.10 0.00 100 1008.1
20260509125604 23 168 0.0 3.2 0.00 0.10 0.00 100 1008.1
20260509125503 23 168 0.0 3.2 0.00 0.10 0.00 100 1008.1
20260509125401 23 168 1.6 3.2 0.00 0.10 0.00 100 1008.0
20260509125307 23 169 1.6 3.2 0.00 0.10 0.00 100 1008.0
20260509125202 23 168 1.6 1.6 0.00 0.10 0.00 100 1007.9
20260509125102 23 168 1.6 1.6 0.00 0.10 0.00 100 1007.9
20260509125005 23 168 0.0 1.6 0.00 0.10 0.00 100 1007.9
20260509124903 23 168 0.0 1.6 0.00 0.10 0.00 100 1007.9
20260509124802 23 168 0.0 1.6 0.00 0.10 0.00 100 1007.9
20260509124702 23 168 0.0 1.6 0.00 0.10 0.00 100 1007.8
20260509124601 23 168 0.0 1.6 0.00 0.10 0.00 100 1007.8
20260509124503 23 168 0.0 1.6 0.00 0.10 0.00 100 1007.8
20260509124402 23 168 0.0 1.6 0.00 0.10 0.00 100 1007.7
20260509124303 23 168 0.0 1.6 0.00 0.10 0.00 100 1007.7
20260509124203 23 168 0.0 1.6 0.00 0.10 0.00 100 1007.7
20260509124103 23 168 0.0 1.6 0.00 0.10 0.00 100 1007.7
20260509124002 23 168 0.0 1.6 0.00 0.10 0.00 100 1007.7
20260509123902 23 168 0.0 1.6 0.00 0.10 0.00 100 1007.7
20260509123802 23 168 0.0 1.6 0.00 0.10 0.00 100 1007.7
20260509123702 23 168 0.0 1.6 0.00 0.10 0.00 100 1007.7
20260509123604 23 168 0.0 1.6 0.00 0.10 0.00 100 1007.7
20260509123503 23 172 0.0 1.6 0.00 0.10 0.00 100 1007.8
20260509123403 23 172 0.0 1.6 0.00 0.10 0.00 100 1007.8
20260509123301 23 173 0.0 1.6 0.00 0.10 0.00 100 1007.7
20260509123203 23 175 0.0 1.6 0.00 0.10 0.00 100 1007.8
20260509123104 23 180 0.0 0.0 0.00 0.10 0.00 100 1007.7
20260509123003 23 180 0.0 0.0 0.00 0.10 0.00 100 1007.7
20260509122902 23 180 0.0 0.0 0.00 0.10 0.00 100 1007.8
20260509122803 23 180 0.0 0.0 0.00 0.10 0.00 100 1007.7
20260509122703 23 180 0.0 0.0 0.00 0.10 0.00 100 1007.7
20260509122603 23 180 0.0 0.0 0.00 0.10 0.00 100 1007.7
20260509122503 23 180 0.0 0.0 0.00 0.10 0.00 100 1007.7
20260509122403 23 180 0.0 0.0 0.00 0.10 0.00 100 1007.7
20260509122305 23 180 0.0 0.0 0.00 0.10 0.00 100 1007.7
20260509122202 23 180 0.0 0.0 0.00 0.10 0.00 100 1007.7
20260509122104 23 180 0.0 0.0 0.00 0.10 0.00 100 1007.6
20260509122003 23 180 0.0 0.0 0.00 0.10 0.00 100 1007.6
20260509121903 23 180 0.0 0.0 0.00 0.10 0.00 100 1007.6
20260509121803 23 180 0.0 0.0 0.00 0.10 0.00 100 1007.5
20260509121703 23 180 0.0 0.0 0.00 0.10 0.00 100 1007.4
20260509121603 23 180 0.0 0.0 0.00 0.10 0.00 100 1007.3
20260509121503 23 180 0.0 0.0 0.00 0.10 0.00 100 1007.3
20260509121402 23 180 0.0 0.0 0.00 0.10 0.00 100 1007.2
20260509121303 23 180 0.0 0.0 0.00 0.10 0.00 100 1007.2
20260509121203 23 180 0.0 0.0 0.00 0.10 0.00 100 1007.2
20260509121037 23 180 0.0 0.0 0.00 0.10 0.00 100 1007.1
20260509120938 23 180 0.0 1.6 0.00 0.10 0.00 100 1007.2
20260509120838 23 180 0.0 3.2 0.00 0.10 0.00 100 1007.2
20260509120738 23 180 0.0 3.2 0.00 0.10 0.00 100 1007.3
20260509120638 23 180 0.0 3.2 0.00 0.10 0.00 100 1007.3
20260509120539 23 180 0.0 3.2 0.00 0.10 0.00 100 1007.3
20260509120439 23 180 0.0 3.2 0.00 0.10 0.00 100 1007.3
20260509120339 23 180 0.0 3.2 0.00 0.10 0.00 100 1007.4
20260509120238 23 180 0.0 3.2 0.00 0.10 0.00 100 1007.3
20260509120138 23 180 0.0 3.2 0.00 0.10 0.00 100 1007.3
20260509120038 23 180 1.6 3.2 0.00 0.10 0.00 100 1007.3
20260509115937 23 180 0.0 3.2 0.00 0.10 0.00 100 1007.2
20260509115837 23 180 0.0 3.2 0.00 0.10 0.00 100 1007.3
20260509115738 23 180 0.0 3.2 0.00 0.10 0.00 100 1007.1
20260509115638 23 180 0.0 3.2 0.00 0.10 0.00 100 1007.1
20260509115539 23 180 1.6 3.2 0.00 0.10 0.00 100 1007.0
20260509115438 23 180 0.0 3.2 0.00 0.10 0.00 100 1007.0
20260509115340 23 180 1.6 3.2 0.00 0.10 0.00 100 1006.9
20260509115238 23 180 1.6 3.2 0.00 0.10 0.00 100 1007.0
20260509115139 23 180 1.6 3.2 0.00 0.10 0.00 100 1006.9
20260509115038 23 180 0.0 3.2 0.00 0.10 0.00 100 1006.9
20260509114938 23 180 1.6 3.2 0.00 0.10 0.00 100 1006.9
20260509114838 23 180 0.0 3.2 0.00 0.10 0.00 100 1006.8
20260509114737 23 180 0.0 3.2 0.00 0.10 0.00 100 1006.8
20260509114639 23 180 1.6 3.2 0.00 0.10 0.00 100 1006.8
20260509114538 23 186 1.6 3.2 0.00 0.10 0.00 100 1006.9
20260509114438 23 192 1.6 3.2 0.00 0.10 0.00 100 1007.0
20260509114338 23 195 1.6 3.2 0.00 0.10 0.00 100 1006.9
20260509114236 23 195 0.0 3.2 0.00 0.10 0.00 100 1006.9
20260509114139 23 197 0.0 3.2 0.00 0.10 0.00 100 1007.0
20260509114036 23 197 0.0 3.2 0.00 0.10 0.00 100 1007.1
20260509113937 23 197 0.0 3.2 0.00 0.10 0.00 100 1007.1
20260509113839 23 197 0.0 3.2 0.00 0.10 0.00 100 1007.2
20260509113738 23 197 0.0 3.2 0.00 0.10 0.00 100 1007.2
20260509113639 23 197 0.0 3.2 0.00 0.10 0.00 100 1007.3
20260509113538 23 197 1.6 3.2 0.00 0.10 0.00 100 1007.3
20260509113438 23 197 1.6 3.2 0.00 0.10 0.00 100 1007.4
20260509113339 23 197 0.0 1.6 0.00 0.10 0.00 100 1007.4
20260509113238 23 197 0.0 1.6 0.00 0.10 0.00 100 1007.3
20260509113138 23 197 0.0 1.6 0.00 0.10 0.00 100 1007.3
20260509113037 23 197 0.0 1.6 0.00 0.10 0.00 100 1007.2
20260509112938 23 197 0.0 1.6 0.00 0.10 0.00 100 1007.2
20260509112837 23 197 0.0 1.6 0.00 0.10 0.00 100 1007.4
20260509112738 23 197 0.0 1.6 0.00 0.10 0.00 100 1007.5
20260509112637 23 197 0.0 1.6 0.00 0.10 0.00 100 1007.5
20260509112537 23 197 0.0 1.6 0.00 0.10 0.00 100 1007.6
20260509112437 23 197 0.0 0.0 0.00 0.10 0.00 100 1007.5
20260509112337 23 197 0.0 0.0 0.00 0.10 0.00 100 1007.5
20260509112237 23 197 0.0 0.0 0.00 0.10 0.00 100 1007.4
20260509112137 23 197 0.0 0.0 0.00 0.10 0.00 100 1007.5
20260509112039 23 197 0.0 0.0 0.00 0.10 0.00 100 1007.6
20260509111936 23 197 0.0 0.0 0.00 0.10 0.00 100 1007.6
20260509111838 23 197 0.0 0.0 0.00 0.10 0.00 100 1007.6
20260509111737 23 197 0.0 0.0 0.00 0.10 0.00 100 1007.6
20260509111638 23 197 0.0 0.0 0.00 0.10 0.00 100 1007.6
20260509111538 23 197 0.0 0.0 0.00 0.10 0.00 100 1007.6
20260509111437 23 197 0.0 0.0 0.00 0.10 0.00 100 1007.6
20260509111337 23 197 0.0 0.0 0.00 0.10 0.00 100 1007.6
20260509111237 23 197 0.0 0.0 0.00 0.10 0.00 100 1007.5
20260509111138 23 197 0.0 0.0 0.00 0.10 0.00 100 1007.5
20260509111038 23 197 0.0 0.0 0.00 0.10 0.00 100 1007.5
20260509110936 23 197 0.0 0.0 0.00 0.10 0.00 100 1007.5
20260509110838 23 197 0.0 1.6 0.00 0.10 0.00 100 1007.5
20260509110731 23 197 0.0 1.6 0.00 0.10 0.00 100 1007.4
20260509110632 23 197 0.0 1.6 0.00 0.10 0.00 100 1007.3
20260509110525 23 197 0.0 1.6 0.00 0.10 0.00 100 1007.4
20260509110424 23 197 0.0 1.6 0.00 0.10 0.00 100 1007.4
20260509110314 23 197 0.0 1.6 0.00 0.10 0.00 100 1007.4
20260509110207 23 197 0.0 1.6 0.00 0.10 0.00 100 1007.4
20260509110002 23 197 1.6 1.6 0.00 0.10 0.00 100 1007.4
20260509105904 23 197 1.6 1.6 0.00 0.10 0.00 100 1007.4
20260509105803 23 197 1.6 1.6 0.00 0.10 0.00 100 1007.3
20260509105703 23 197 0.0 0.0 0.00 0.10 0.00 100 1007.3
20260509105603 23 197 0.0 0.0 0.00 0.10 0.00 100 1007.3
20260509105503 23 197 0.0 0.0 0.00 0.10 0.00 100 1007.2
20260509105404 23 197 0.0 0.0 0.00 0.10 0.00 100 1007.3
20260509105306 23 197 0.0 0.0 0.00 0.10 0.00 100 1007.3
20260509105202 23 197 0.0 0.0 0.00 0.10 0.00 100 1007.3
20260509105102 23 197 0.0 0.0 0.00 0.10 0.00 100 1007.3
20260509105003 23 197 0.0 0.0 0.00 0.10 0.00 100 1007.4
20260509104903 23 197 0.0 0.0 0.00 0.10 0.00 100 1007.4
20260509104803 23 197 0.0 0.0 0.00 0.10 0.00 100 1007.4
20260509104703 23 197 0.0 0.0 0.00 0.10 0.00 100 1007.4
20260509104604 23 197 0.0 0.0 0.00 0.10 0.00 100 1007.4
20260509104504 23 197 0.0 0.0 0.00 0.10 0.00 100 1007.5
20260509104402 23 197 0.0 0.0 0.00 0.10 0.00 100 1007.5
20260509104301 23 197 0.0 0.0 0.00 0.10 0.00 100 1007.6
20260509104203 23 197 0.0 0.0 0.00 0.10 0.00 100 1007.5
20260509104108 23 197 0.0 0.0 0.00 0.10 0.00 100 1007.4
20260509104005 23 197 0.0 0.0 0.00 0.10 0.00 100 1007.4
20260509103902 23 197 0.0 0.0 0.00 0.10 0.00 100 1007.3
20260509103803 23 197 0.0 0.0 0.00 0.10 0.00 100 1007.3
20260509103703 23 197 0.0 0.0 0.00 0.10 0.00 100 1007.4
20260509103603 23 197 0.0 0.0 0.00 0.10 0.00 100 1007.3
20260509103503 23 197 0.0 0.0 0.00 0.10 0.00 100 1007.3
20260509103403 23 197 0.0 0.0 0.00 0.10 0.00 100 1007.3
20260509103303 23 197 0.0 0.0 0.00 0.10 0.00 100 1007.3
20260509103204 23 197 0.0 0.0 0.00 0.10 0.00 100 1007.3
20260509103103 23 197 0.0 0.0 0.00 0.10 0.00 100 1007.1
20260509103002 23 197 0.0 0.0 0.00 0.10 0.00 100 1007.0
20260509102901 23 197 0.0 0.0 0.00 0.10 0.00 100 1007.0
20260509102803 23 197 0.0 0.0 0.00 0.10 0.00 100 1007.0
20260509102703 23 197 0.0 0.0 0.00 0.10 0.00 100 1006.9
20260509102604 23 197 0.0 0.0 0.00 0.10 0.00 100 1006.9
20260509102502 23 197 0.0 0.0 0.00 0.10 0.00 100 1007.0
20260509102402 23 197 0.0 0.0 0.00 0.10 0.00 100 1007.0
20260509102305 23 197 0.0 0.0 0.00 0.10 0.00 100 1007.0
20260509102204 23 197 0.0 0.0 0.00 0.10 0.00 100 1006.9
20260509102102 23 197 0.0 0.0 0.00 0.10 0.00 100 1007.0
20260509102001 23 197 0.0 0.0 0.00 0.10 0.00 100 1007.0
20260509101902 23 197 0.0 0.0 0.00 0.10 0.00 100 1006.9
20260509101802 23 197 0.0 0.0 0.00 0.10 0.00 100 1006.9
20260509101703 23 197 0.0 0.0 0.00 0.10 0.00 100 1006.9
20260509101604 23 197 0.0 0.0 0.00 0.10 0.00 100 1006.9
20260509101504 23 197 0.0 0.0 0.00 0.10 0.00 100 1006.9
20260509101403 23 197 0.0 0.0 0.00 0.10 0.00 100 1006.8
20260509101304 23 197 0.0 0.0 0.00 0.10 0.00 100 1006.8
20260509101203 23 197 0.0 0.0 0.00 0.10 0.00 100 1006.8
20260509101102 23 197 0.0 0.0 0.00 0.10 0.00 100 1006.8
20260509101003 23 197 0.0 0.0 0.00 0.10 0.00 100 1006.8
20260509100902 23 197 0.0 0.0 0.00 0.10 0.00 100 1006.8
20260509100805 23 197 0.0 0.0 0.00 0.10 0.00 100 1006.7
20260509100702 23 197 0.0 0.0 0.00 0.10 0.00 100 1006.6
20260509100603 23 197 0.0 0.0 0.00 0.10 0.00 100 1006.6
20260509100503 23 197 0.0 0.0 0.00 0.10 0.00 100 1006.5
20260509100403 23 197 0.0 0.0 0.00 0.10 0.00 100 1006.6
20260509100302 23 197 0.0 0.0 0.00 0.10 0.00 100 1006.6
20260509100202 23 197 0.0 0.0 0.00 0.10 0.00 100 1006.6
20260509100104 23 197 0.0 0.0 0.00 0.10 0.00 100 1006.5
20260509100003 23 197 0.0 0.0 0.00 0.10 0.00 100 1006.5
20260509095904 23 197 0.0 0.0 0.00 0.10 0.00 100 1006.5
20260509095803 23 197 0.0 0.0 0.00 0.10 0.00 100 1006.5
20260509095703 23 197 0.0 0.0 0.00 0.10 0.00 100 1006.4
20260509095603 23 197 0.0 0.0 0.00 0.10 0.00 100 1006.5
20260509095504 23 197 0.0 0.0 0.00 0.10 0.00 100 1006.4
20260509095403 23 197 0.0 0.0 0.00 0.10 0.00 100 1006.4
20260509095305 23 197 0.0 0.0 0.00 0.10 0.00 100 1006.4
20260509095202 23 197 0.0 0.0 0.00 0.10 0.00 100 1006.5
20260509095103 23 197 0.0 0.0 0.00 0.10 0.00 100 1006.5
20260509095004 23 197 0.0 0.0 0.00 0.10 0.00 100 1006.5
20260509094903 23 197 0.0 0.0 0.00 0.10 0.00 100 1006.4
20260509094803 23 197 0.0 0.0 0.00 0.10 0.00 100 1006.3
20260509094703 -17 0.0 0.0 0.00 0.10 0.00 1006.4
20260509094603 -17 0.0 0.0 0.00 0.10 0.00 1006.5
20260509094504 -17 0.0 0.0 0.00 0.10 0.00 1006.5
20260509094403 -17 0.0 0.0 0.00 0.10 0.00 1006.6
20260509094303 -17 0.0 0.0 0.00 0.10 0.00 1006.6
20260509094204 -17 0.0 0.0 0.00 0.10 0.00 1006.7
20260509094103 23 197 0.0 0.0 0.00 0.10 0.00 100 1006.7
20260509094002 23 197 0.0 0.0 0.00 0.10 0.00 100 1006.7
20260509093903 23 197 0.0 1.6 0.00 0.10 0.00 100 1006.7
20260509093803 23 197 0.0 3.2 0.00 0.10 0.00 100 1006.8
20260509093704 23 197 0.0 3.2 0.00 0.10 0.00 100 1006.7
20260509093603 23 197 0.0 3.2 0.00 0.10 0.00 100 1006.8
20260509093503 23 197 0.0 3.2 0.00 0.10 0.00 100 1006.9
20260509093403 23 197 0.0 3.2 0.00 0.10 0.00 100 1006.9
20260509093303 23 197 0.0 3.2 0.00 0.10 0.00 100 1007.0
20260509093202 23 197 0.0 3.2 0.00 0.10 0.00 100 1007.1
20260509093102 23 197 0.0 3.2 0.00 0.10 0.00 100 1007.1
20260509093003 23 197 1.6 3.2 0.00 0.10 0.00 100 1007.2
20260509092902 23 197 1.6 3.2 0.00 0.10 0.00 100 1007.1
20260509092803 23 197 1.6 3.2 0.00 0.10 0.00 100 1007.2
20260509092704 23 197 1.6 3.2 0.00 0.10 0.00 100 1007.2
20260509092603 23 190 1.6 3.2 0.00 0.10 0.00 100 1007.2
20260509092503 23 189 1.6 3.2 0.00 0.10 0.00 100 1007.2
20260509092402 23 189 1.6 3.2 0.00 0.10 0.00 100 1007.1
20260509092305 23 189 1.6 3.2 0.00 0.10 0.00 100 1007.1
20260509092203 23 189 1.6 3.2 0.00 0.10 0.00 100 1007.1
20260509092101 23 157 1.6 3.2 0.00 0.10 0.00 100 1007.1
20260509092004 23 154 0.0 3.2 0.00 0.10 0.00 100 1007.1
20260509091903 23 130 0.0 3.2 0.00 0.10 0.00 100 1007.1
20260509091804 23 130 0.0 3.2 0.00 0.10 0.00 100 1007.0
20260509091702 23 130 0.0 3.2 0.00 0.10 0.00 100 1006.9
20260509091603 23 130 1.6 3.2 0.00 0.10 0.00 100 1006.9
20260509091504 23 130 1.6 3.2 0.00 0.10 0.00 100 1007.0
20260509091403 23 130 0.0 1.6 0.00 0.10 0.00 100 1006.9
20260509091303 23 130 0.0 1.6 0.00 0.10 0.00 100 1006.9
20260509091203 23 130 0.0 1.6 0.00 0.10 0.00 100 1007.0
20260509091102 23 130 0.0 1.6 0.00 0.10 0.00 100 1006.9
20260509091004 23 130 0.0 1.6 0.00 0.10 0.00 100 1006.8
20260509090903 23 130 0.0 1.6 0.00 0.10 0.00 100 1006.8
20260509090803 23 130 0.0 1.6 0.00 0.10 0.00 100 1006.7
20260509090701 23 130 0.0 1.6 0.00 0.10 0.00 100 1006.7
20260509090603 23 130 0.0 1.6 0.00 0.10 0.00 100 1006.7
20260509090504 23 130 0.0 1.6 0.00 0.10 0.00 100 1006.7
20260509090403 23 130 0.0 1.6 0.00 0.10 0.00 100 1006.7
20260509090303 23 130 0.0 1.6 0.00 0.10 0.00 100 1006.7
20260509090203 23 130 0.0 1.6 0.00 0.10 0.00 100 1006.7
20260509090003 22 130 0.0 0.0 0.00 0.10 0.00 100 1006.6
20260509085901 23 130 0.0 0.0 0.00 0.10 0.00 100 1006.7
20260509085803 22 130 0.0 0.0 0.00 0.10 0.00 100 1006.6
20260509085704 22 130 0.0 0.0 0.00 0.10 0.00 100 1006.7
20260509085603 22 130 0.0 0.0 0.00 0.10 0.00 100 1006.8
20260509085504 22 130 0.0 0.0 0.00 0.10 0.00 100 1006.8
20260509085403 22 130 0.0 0.0 0.00 0.10 0.00 100 1006.8
20260509085306 22 130 0.0 0.0 0.00 0.10 0.00 100 1006.8
20260509085203 22 130 0.0 0.0 0.00 0.10 0.00 100 1006.9
20260509085101 22 130 0.0 0.0 0.00 0.10 0.00 100 1006.8
20260509085003 23 130 0.0 0.0 0.00 0.10 0.00 100 1006.8
20260509084903 23 130 0.0 0.0 0.00 0.10 0.00 100 1006.8
20260509084802 23 130 0.0 0.0 0.00 0.10 0.00 100 1006.7
20260509084704 23 130 0.0 0.0 0.00 0.10 0.00 100 1006.7
20260509084603 23 130 0.0 0.0 0.00 0.10 0.00 100 1006.7
20260509084502 23 130 0.0 0.0 0.00 0.10 0.00 100 1006.7
20260509084402 23 130 0.0 0.0 0.00 0.10 0.00 100 1006.7
20260509084302 23 130 0.0 0.0 0.00 0.10 0.00 100 1006.7
20260509084202 23 130 0.0 0.0 0.00 0.10 0.00 100 1006.6
20260509084102 23 130 0.0 0.0 0.00 0.10 0.00 100 1006.6
20260509084002 23 130 0.0 0.0 0.00 0.10 0.00 100 1006.7
20260509083903 22 130 0.0 0.0 0.00 0.10 0.00 100 1006.7
20260509083804 23 130 0.0 0.0 0.00 0.10 0.00 100 1006.7
20260509083702 23 130 0.0 1.6 0.00 0.10 0.00 100 1006.7
20260509083603 23 130 0.0 1.6 0.00 0.10 0.00 100 1006.7
20260509083505 23 130 0.0 1.6 0.00 0.10 0.00 100 1006.6
20260509083403 23 130 0.0 1.6 0.00 0.10 0.00 100 1006.7
20260509083302 23 130 0.0 1.6 0.00 0.10 0.00 100 1006.8
20260509083203 23 130 0.0 1.6 0.00 0.10 0.00 100 1006.8
20260509083103 23 130 0.0 1.6 0.00 0.10 0.00 100 1006.8
20260509083005 23 130 0.0 1.6 0.00 0.10 0.00 100 1006.9
20260509082901 23 130 0.0 1.6 0.00 0.10 0.00 100 1006.9
20260509082803 23 130 0.0 1.6 0.00 0.10 0.00 100 1006.9
20260509082703 23 130 0.0 1.6 0.00 0.10 0.00 100 1006.9
20260509082602 22 130 0.0 0.0 0.00 0.10 0.00 100 1007.0
20260509082503 22 130 0.0 0.0 0.00 0.10 0.00 100 1007.0
20260509082404 22 130 0.0 0.0 0.00 0.10 0.00 100 1007.0
20260509082306 22 130 0.0 0.0 0.00 0.10 0.00 100 1006.9
20260509082203 22 130 0.0 0.0 0.00 0.10 0.00 100 1006.9
20260509082103 22 130 0.0 0.0 0.00 0.10 0.00 100 1006.9
20260509082003 22 130 0.0 0.0 0.00 0.10 0.00 100 1006.9
20260509081902 22 130 0.0 0.0 0.00 0.10 0.00 100 1006.9
20260509081802 22 130 0.0 0.0 0.00 0.10 0.00 100 1007.0
20260509081704 22 130 0.0 0.0 0.00 0.10 0.00 100 1006.9
20260509081603 23 130 0.0 0.0 0.00 0.10 0.00 100 1007.0
20260509081503 22 130 0.0 0.0 0.00 0.10 0.00 100 1007.0
20260509081402 22 130 0.0 0.0 0.00 0.10 0.00 100 1006.9
20260509081303 22 130 0.0 0.0 0.00 0.10 0.00 100 1006.9
20260509081201 23 130 0.0 0.0 0.00 0.10 0.00 100 1006.9
20260509081102 22 130 0.0 0.0 0.00 0.10 0.00 100 1006.9
20260509081003 22 130 0.0 0.0 0.00 0.10 0.00 100 1006.9
20260509080903 22 130 0.0 0.0 0.00 0.10 0.00 100 1006.9
20260509080803 22 130 0.0 0.0 0.00 0.10 0.00 100 1006.9
20260509080703 22 130 0.0 0.0 0.00 0.10 0.00 100 1006.9
20260509080603 22 130 0.0 0.0 0.00 0.10 0.00 100 1006.9
20260509080504 22 130 0.0 0.0 0.00 0.10 0.00 100 1006.9
20260509080402 22 130 0.0 0.0 0.00 0.10 0.00 100 1007.0
20260509080303 22 130 0.0 0.0 0.00 0.10 0.00 100 1006.9
20260509080203 22 130 0.0 0.0 0.00 0.10 0.00 100 1006.9
20260509080103 22 130 0.0 0.0 0.00 0.10 0.00 100 1006.9
20260509080003 22 130 0.0 0.0 0.00 0.10 0.00 100 1007.0
20260509075904 22 130 0.0 0.0 0.00 0.10 0.00 100 1007.0
20260509075804 22 130 0.0 0.0 0.00 0.10 0.00 100 1006.9
20260509075704 22 130 0.0 0.0 0.00 0.10 0.00 100 1007.0
20260509075604 22 130 0.0 0.0 0.00 0.10 0.00 100 1007.0
20260509075503 22 130 0.0 0.0 0.00 0.10 0.00 100 1007.0
20260509075403 22 130 0.0 0.0 0.00 0.10 0.00 100 1007.0
20260509075306 22 130 0.0 0.0 0.00 0.10 0.00 100 1007.1
20260509075204 22 130 0.0 0.0 0.00 0.10 0.00 100 1007.1
20260509075103 22 130 0.0 0.0 0.00 0.10 0.00 100 1007.1
20260509075003 22 130 0.0 0.0 0.00 0.10 0.00 100 1007.1
20260509074903 22 130 0.0 0.0 0.00 0.10 0.00 100 1007.2
20260509074803 22 130 0.0 0.0 0.00 0.10 0.00 100 1007.2
20260509074702 22 130 0.0 0.0 0.00 0.10 0.00 100 1007.2
20260509074602 22 130 0.0 0.0 0.00 0.10 0.00 100 1007.2
20260509074502 22 130 0.0 0.0 0.00 0.10 0.00 100 1007.3
20260509074402 22 130 0.0 0.0 0.00 0.10 0.00 100 1007.3
20260509074302 22 130 0.0 0.0 0.00 0.10 0.00 100 1007.3
20260509074203 22 130 0.0 0.0 0.00 0.10 0.00 100 1007.3
20260509074103 22 130 0.0 0.0 0.00 0.10 0.00 100 1007.3
20260509074003 22 130 0.0 0.0 0.00 0.10 0.00 100 1007.3
20260509073903 22 130 0.0 0.0 0.00 0.10 0.00 100 1007.3
20260509073802 22 130 0.0 0.0 0.00 0.10 0.00 100 1007.3
20260509073701 22 130 0.0 0.0 0.00 0.10 0.00 100 1007.4
20260509073604 22 130 0.0 0.0 0.00 0.10 0.00 100 1007.4
20260509073504 22 130 0.0 0.0 0.00 0.10 0.00 100 1007.4
20260509073403 22 130 0.0 0.0 0.00 0.10 0.00 100 1007.4
20260509073302 23 130 0.0 0.0 0.00 0.10 0.00 100 1007.4
20260509073203 23 130 0.0 0.0 0.00 0.10 0.00 100 1007.4
20260509073101 23 130 0.0 0.0 0.00 0.10 0.00 100 1007.3
20260509073002 22 130 0.0 0.0 0.00 0.10 0.00 100 1007.3
20260509072903 22 130 0.0 0.0 0.00 0.10 0.00 100 1007.4
20260509072804 22 130 0.0 0.0 0.00 0.10 0.00 100 1007.3
20260509072702 22 130 0.0 0.0 0.00 0.10 0.00 100 1007.4
20260509072602 22 130 0.0 0.0 0.00 0.10 0.00 100 1007.4
20260509072504 22 130 0.0 0.0 0.00 0.10 0.00 100 1007.3
20260509072403 22 130 0.0 0.0 0.00 0.10 0.00 100 1007.4
20260509072306 22 130 0.0 0.0 0.00 0.10 0.00 100 1007.4
20260509072202 22 130 0.0 0.0 0.00 0.10 0.00 100 1007.4
20260509072103 22 130 0.0 1.6 0.00 0.10 0.00 100 1007.4
20260509072004 22 130 0.0 1.6 0.00 0.10 0.00 100 1007.4
20260509071901 22 130 0.0 1.6 0.00 0.10 0.00 100 1007.4
20260509071802 22 130 0.0 1.6 0.00 0.10 0.00 100 1007.3
20260509071702 22 130 0.0 1.6 0.00 0.10 0.00 100 1007.3
20260509071603 22 130 0.0 1.6 0.00 0.10 0.00 100 1007.3
20260509071504 22 130 0.0 1.6 0.00 0.10 0.00 100 1007.3
20260509071401 22 130 0.0 1.6 0.00 0.10 0.00 100 1007.3
20260509071301 22 130 0.0 1.6 0.00 0.10 0.00 100 1007.3
20260509071203 22 130 0.0 1.6 0.00 0.10 0.00 100 1007.3
20260509071103 22 130 0.0 0.0 0.00 0.10 0.00 100 1007.2
20260509071003 22 130 0.0 0.0 0.00 0.10 0.00 100 1007.2
20260509070903 22 130 0.0 0.0 0.00 0.10 0.00 100 1007.2
20260509070803 22 130 0.0 0.0 0.00 0.10 0.00 100 1007.2
20260509070703 22 130 0.0 0.0 0.00 0.10 0.00 100 1007.2
20260509070602 22 130 0.0 1.6 0.00 0.10 0.00 100 1007.2
20260509070503 22 130 0.0 1.6 0.00 0.10 0.00 100 1007.2
20260509070424 22 130 0.0 1.6 0.00 0.10 0.00 100 1007.2
20260509070420 22 130 0.0 1.6 0.00 0.10 0.00 100 1007.2
20260509070412 22 130 0.0 1.6 0.00 0.10 0.00 100 1007.2
20260509070359 22 130 0.0 1.6 0.00 0.10 0.00 100 1007.2
20260509070347 22 130 0.0 1.6 0.00 0.10 0.00 100 1007.2
20260509070119 22 130 0.0 1.6 0.00 0.10 0.00 100 1007.2
20260509065803 22 130 0.0 1.6 0.00 0.10 0.00 100 1007.3
20260509065702 22 130 0.0 1.6 0.00 0.10 0.00 100 1007.3
20260509065603 22 130 0.0 1.6 0.00 0.10 0.00 100 1007.3
20260509065503 22 130 1.6 1.6 0.00 0.10 0.00 100 1007.3
20260509065402 22 130 1.6 1.6 0.00 0.10 0.00 100 1007.3
20260509065306 22 130 0.0 1.6 0.00 0.10 0.00 100 1007.2
20260509065202 22 130 0.0 0.0 0.00 0.10 0.00 100 1007.2
20260509065103 22 130 0.0 0.0 0.00 0.10 0.00 100 1007.2
20260509065002 22 130 0.0 0.0 0.00 0.10 0.00 100 1007.2
20260509064901 22 130 0.0 0.0 0.00 0.10 0.00 100 1007.2
20260509064803 22 130 0.0 0.0 0.00 0.10 0.00 100 1007.1
20260509064704 22 130 0.0 0.0 0.00 0.10 0.00 100 1007.1
20260509064604 22 130 0.0 0.0 0.00 0.10 0.00 100 1007.0
20260509064503 22 130 0.0 0.0 0.00 0.10 0.00 100 1007.1
20260509064403 22 130 0.0 0.0 0.00 0.10 0.00 100 1007.2
20260509064303 22 130 0.0 0.0 0.00 0.10 0.00 100 1007.1
20260509064204 22 130 0.0 0.0 0.00 0.10 0.00 100 1007.1
20260509064102 -17 130 0.0 0.0 0.00 0.10 0.00 1007.1
20260509064004 -17 130 0.0 0.0 0.00 0.10 0.00 1007.1
20260509063903 22 130 0.0 0.0 0.00 0.10 0.00 100 1007.1
20260509063802 22 130 0.0 0.0 0.00 0.10 0.00 100 1007.1
20260509063703 22 130 0.0 0.0 0.00 0.10 0.00 100 1007.0
20260509063603 22 130 0.0 0.0 0.00 0.10 0.00 100 1007.1
20260509063503 22 130 0.0 0.0 0.00 0.10 0.00 100 1007.2
20260509063403 22 130 0.0 0.0 0.00 0.10 0.00 100 1007.2
20260509063303 22 130 0.0 0.0 0.00 0.10 0.00 100 1007.2
20260509063203 22 130 0.0 1.6 0.00 0.10 0.00 100 1007.1
20260509063103 22 130 0.0 1.6 0.00 0.10 0.00 100 1007.3
20260509063003 22 130 0.0 1.6 0.00 0.10 0.00 100 1007.2
20260509062903 22 130 0.0 1.6 0.00 0.10 0.00 100 1007.3
20260509062803 22 130 0.0 1.6 0.00 0.10 0.00 100 1007.2
20260509062702 22 130 0.0 1.6 0.00 0.10 0.00 100 1007.2
20260509062603 22 130 0.0 1.6 0.00 0.10 0.00 100 1007.2
20260509062503 22 130 0.0 1.6 0.00 0.10 0.00 100 1007.2
20260509062403 22 130 0.0 1.6 0.00 0.10 0.00 100 1007.3
20260509062306 22 130 0.0 1.6 0.00 0.10 0.00 100 1007.2
20260509062203 22 130 0.0 1.6 0.00 0.10 0.00 100 1007.2
20260509062103 22 130 0.0 1.6 0.00 0.10 0.00 100 1007.2
20260509062003 22 130 0.0 1.6 0.00 0.10 0.00 100 1007.2
20260509061904 22 130 0.0 1.6 0.00 0.10 0.00 100 1007.3
20260509061804 22 130 0.0 1.6 0.00 0.10 0.00 100 1007.3
20260509061703 22 130 0.0 1.6 0.00 0.10 0.00 100 1007.4
20260509061603 22 130 0.0 0.0 0.00 0.10 0.00 100 1007.4
20260509061501 22 130 0.0 0.0 0.00 0.10 0.00 100 1007.4
20260509061403 22 130 0.0 0.0 0.00 0.10 0.00 100 1007.4
20260509061303 22 130 0.0 0.0 0.00 0.10 0.00 100 1007.5
20260509061203 22 130 0.0 0.0 0.00 0.10 0.00 100 1007.5
20260509061103 22 130 0.0 0.0 0.00 0.10 0.00 100 1007.5
20260509061003 22 130 0.0 0.0 0.00 0.10 0.00 100 1007.6
20260509060903 22 130 0.0 0.0 0.00 0.10 0.00 100 1007.5
20260509060803 22 130 0.0 0.0 0.00 0.10 0.00 100 1007.5
20260509060703 22 130 0.0 0.0 0.00 0.10 0.00 100 1007.6
20260509060603 22 130 0.0 0.0 0.00 0.10 0.00 100 1007.5
20260509060504 22 130 0.0 0.0 0.00 0.10 0.00 100 1007.6
20260509060403 22 130 0.0 0.0 0.00 0.10 0.00 100 1007.6
20260509060303 22 130 0.0 0.0 0.00 0.10 0.00 100 1007.5
20260509060203 22 130 0.0 0.0 0.00 0.10 0.00 100 1007.6
20260509060103 22 130 0.0 0.0 0.00 0.10 0.00 100 1007.6
20260509060004 22 130 0.0 0.0 0.00 0.10 0.00 100 1007.6
20260509055904 22 130 0.0 1.6 0.00 0.10 0.00 100 1007.7
20260509055801 22 130 0.0 1.6 0.00 0.10 0.00 100 1007.6
20260509055703 22 130 0.0 1.6 0.00 0.10 0.00 100 1007.6
20260509055604 22 130 0.0 1.6 0.00 0.10 0.00 100 1007.6
20260509055504 22 130 0.0 1.6 0.00 0.10 0.00 100 1007.6
20260509055402 22 130 0.0 1.6 0.00 0.10 0.00 100 1007.7
20260509055306 22 130 0.0 1.6 0.00 0.10 0.00 100 1007.6
20260509055202 22 130 0.0 1.6 0.00 0.10 0.00 100 1007.7
20260509055104 22 130 0.0 1.6 0.00 0.10 0.00 100 1007.6
20260509055002 22 130 0.0 1.6 0.00 0.10 0.00 100 1007.6
20260509054902 22 130 0.0 1.6 0.00 0.10 0.00 100 1007.7
20260509054802 22 130 0.0 1.6 0.00 0.10 0.00 100 1007.7
20260509054703 22 130 0.0 1.6 0.00 0.10 0.00 100 1007.7
20260509054602 22 130 0.0 1.6 0.00 0.10 0.00 100 1007.7
20260509054504 22 130 0.0 1.6 0.00 0.10 0.00 100 1007.7
20260509054404 22 130 0.0 1.6 0.00 0.10 0.00 100 1007.7
20260509054303 22 130 0.0 1.6 0.00 0.10 0.00 100 1007.7
20260509054159 22 130 0.0 1.6 0.00 0.10 0.00 100 1007.6
20260509054034 22 130 0.0 1.6 0.00 0.10 0.00 100 1007.7
20260509053932 22 130 0.0 1.6 0.00 0.10 0.00 100 1007.7
20260509053830 22 128 0.0 1.6 0.00 0.10 0.00 100 1007.6
20260509053732 22 128 0.0 3.2 0.00 0.10 0.00 100 1007.7
20260509053618 22 128 0.0 3.2 0.00 0.10 0.00 100 1007.7
20260509053518 22 128 0.0 3.2 0.00 0.10 0.00 100 1007.7
20260509053417 22 128 0.0 3.2 0.00 0.10 0.00 100 1007.8
20260509053317 22 128 0.0 3.2 0.00 0.10 0.00 100 1007.8
20260509053217 22 128 0.0 3.2 0.00 0.10 0.00 100 1007.8
20260509053116 22 128 0.0 3.2 0.00 0.10 0.00 100 1007.8
20260509053016 22 128 0.0 3.2 0.00 0.10 0.00 100 1007.8
20260509052916 22 128 0.0 3.2 0.00 0.10 0.00 100 1007.8
20260509052818 22 128 0.0 3.2 0.00 0.10 0.00 100 1007.8
20260509052716 22 128 0.0 3.2 0.00 0.10 0.00 100 1007.8
20260509052617 22 128 1.6 3.2 0.00 0.10 0.00 100 1007.8
20260509052516 22 128 1.6 3.2 0.00 0.10 0.00 100 1007.8
20260509052416 22 128 1.6 3.2 0.00 0.10 0.00 100 1007.8
20260509052317 22 161 1.6 3.2 0.00 0.10 0.00 100 1007.8
20260509052217 22 161 1.6 3.2 0.00 0.10 0.00 100 1007.7
20260509052117 22 173 0.0 3.2 0.00 0.10 0.00 100 1007.7
20260509052016 22 173 0.0 3.2 0.00 0.10 0.00 100 1007.7
20260509051916 22 89 0.0 3.2 0.00 0.10 0.00 100 1007.6
20260509051817 22 89 1.6 3.2 0.00 0.10 0.00 100 1007.7
20260509051716 22 89 1.6 3.2 0.00 0.10 0.00 100 1007.6
20260509051617 22 89 1.6 3.2 0.00 0.10 0.00 100 1007.5
20260509051517 22 93 0.0 3.2 0.00 0.10 0.00 100 1007.5
20260509051417 22 93 1.6 3.2 0.00 0.10 0.00 100 1007.5
20260509051317 22 93 1.6 3.2 0.00 0.10 0.00 100 1007.5
20260509051218 22 90 1.6 3.2 0.00 0.10 0.00 100 1007.5
20260509051117 22 90 1.6 3.2 0.00 0.10 0.00 100 1007.5
20260509051016 22 90 1.6 3.2 0.00 0.10 0.00 100 1007.6
20260509050917 22 90 1.6 4.8 0.00 0.10 0.00 100 1007.5
20260509050817 22 87 1.6 4.8 0.00 0.10 0.00 100 1007.6
20260509050717 22 87 1.6 4.8 0.00 0.10 0.00 100 1007.6
20260509050616 22 87 1.6 4.8 0.00 0.10 0.00 100 1007.6
20260509050517 22 87 1.6 4.8 0.00 0.10 0.00 100 1007.7
20260509050416 22 87 1.6 4.8 0.00 0.10 0.00 100 1007.7
20260509050317 22 87 1.6 4.8 0.00 0.10 0.00 100 1007.7
20260509050218 22 87 1.6 4.8 0.00 0.10 0.00 100 1007.7
20260509050118 22 86 1.6 4.8 0.00 0.10 0.00 100 1007.8
20260509050017 22 78 1.6 4.8 0.00 0.10 0.00 100 1007.8
20260509045915 22 99 0.0 3.2 0.00 0.10 0.10 100 1007.9
20260509045816 22 102 0.0 3.2 0.00 0.10 0.10 100 1007.9
20260509045717 22 102 1.6 3.2 0.00 0.10 0.10 100 1007.9
20260509045616 22 102 0.0 3.2 0.00 0.10 0.10 100 1007.9